Peotone Weather
Station Historical Data
 
Daily Summary for September 21, 2014 Units:  English    Metric   Both
« Previous Day
Next Day »
Daily Weekly Monthly Yearly Custom
  Current: High: Low: Average:
Temperature: 49.7 °F 68.8 °F 49.7 °F 61.1 °F
Dew Point: 47.5 °F 67.3 °F 47.5 °F 55.6 °F
Humidity: 92% 96% 64% 83%
Wind Speed: 0.0mph 26.4mph 0.0mph 8.9mph
Wind Gust: 4.6mph 28.8mph - -
WindCalm - - WSW
Pressure: 30.12 in 30.12 in 29.71 in -
Precipitation: 0.00 in      
Historical Graphs
 
 
Tabular Data for September 21, 2014
Time Temperature Dew Point Pressure Wind Wind Speed Wind Gust Humidity Rainfall Rate (Hourly) solar Conditions
00:01 68.5 °F 67.3 °F 29.74 in WSW 5.8 mph 14.9 mph 96% 0.00 in 0.00 W/m2
00:02 68.5 °F 67.3 °F 29.74 in WSW 12.6 mph 12.6 mph 96% 0.00 in 0.00 W/m2
00:04 68.5 °F 67.3 °F 29.74 in SW 11.5 mph 12.6 mph 96% 0.00 in 0.00 W/m2
00:06 68.5 °F 67.3 °F 29.74 in WSW 5.8 mph 6.9 mph 96% 0.00 in 0.00 W/m2
00:07 68.5 °F 67.3 °F 29.74 in WSW 5.8 mph 12.6 mph 96% 0.00 in 0.00 W/m2
00:09 68.5 °F 67.3 °F 29.74 in WSW 4.6 mph 12.6 mph 96% 0.00 in 0.00 W/m2
00:10 68.5 °F 67.3 °F 29.74 in SW 5.8 mph 12.6 mph 96% 0.00 in 0.00 W/m2
00:12 68.5 °F 67.0 °F 29.74 in WSW 9.2 mph 10.3 mph 95% 0.00 in 0.00 W/m2
00:15 68.5 °F 67.0 °F 29.74 in SSW 4.6 mph 11.5 mph 95% 0.00 in 0.00 W/m2
00:17 68.5 °F 67.3 °F 29.74 in SW 5.8 mph 11.5 mph 96% 0.00 in 0.00 W/m2
00:18 68.5 °F 67.3 °F 29.74 in WSW 6.9 mph 12.6 mph 96% 0.00 in 0.00 W/m2
00:19 68.5 °F 67.3 °F 29.74 in WSW 8.1 mph 12.6 mph 96% 0.00 in 0.00 W/m2
00:20 68.5 °F 67.0 °F 29.74 in SW 10.3 mph 12.6 mph 95% 0.00 in 0.00 W/m2
00:23 68.5 °F 67.0 °F 29.74 in SW 3.4 mph 12.6 mph 95% 0.00 in 0.00 W/m2
00:24 68.5 °F 67.0 °F 29.73 in SW 4.6 mph 12.6 mph 95% 0.00 in 0.00 W/m2
00:25 68.5 °F 67.0 °F 29.73 in SW 5.8 mph 12.6 mph 95% 0.00 in 0.00 W/m2
00:29 68.5 °F 67.0 °F 29.73 in WSW 6.9 mph 9.2 mph 95% 0.00 in 0.00 W/m2
00:30 68.5 °F 67.0 °F 29.73 in WSW 6.9 mph 11.5 mph 95% 0.00 in 0.00 W/m2
00:31 68.5 °F 67.0 °F 29.73 in WSW 5.8 mph 11.5 mph 95% 0.00 in 0.00 W/m2
00:34 68.4 °F 66.9 °F 29.73 in WSW 8.1 mph 12.6 mph 95% 0.00 in 0.00 W/m2
00:35 68.4 °F 66.9 °F 29.73 in WSW 8.1 mph 12.6 mph 95% 0.00 in 0.00 W/m2
00:36 68.4 °F 66.9 °F 29.73 in WSW 6.9 mph 9.2 mph 95% 0.00 in 0.00 W/m2
00:40 68.3 °F 66.8 °F 29.73 in WSW 10.3 mph 13.8 mph 95% 0.00 in 0.00 W/m2
00:41 68.3 °F 66.8 °F 29.73 in WSW 5.8 mph 13.8 mph 95% 0.00 in 0.00 W/m2
00:42 68.3 °F 66.8 °F 29.73 in WSW 2.3 mph 9.2 mph 95% 0.00 in 0.00 W/m2
00:45 68.3 °F 66.8 °F 29.73 in West 8.1 mph 12.6 mph 95% 0.00 in 0.00 W/m2
00:46 68.3 °F 66.8 °F 29.73 in WSW 10.3 mph 14.9 mph 95% 0.00 in 0.00 W/m2
00:47 68.3 °F 66.8 °F 29.73 in SSW 9.2 mph 11.5 mph 95% 0.00 in 0.00 W/m2
00:51 68.2 °F 66.7 °F 29.72 in SW 6.9 mph 12.6 mph 95% 0.00 in 0.00 W/m2
00:52 68.2 °F 66.7 °F 29.72 in WSW 5.8 mph 9.2 mph 95% 0.00 in 0.00 W/m2
00:53 68.2 °F 66.7 °F 29.72 in WSW 3.4 mph 12.6 mph 95% 0.00 in 0.00 W/m2
00:56 68.2 °F 66.7 °F 29.72 in SW 6.9 mph 12.6 mph 95% 0.00 in 0.00 W/m2
00:58 68.1 °F 66.6 °F 29.72 in SW 5.8 mph 10.3 mph 95% 0.00 in 0.00 W/m2
00:59 68.1 °F 66.6 °F 29.72 in SW 12.6 mph 13.8 mph 95% 0.00 in 0.00 W/m2
01:01 68.1 °F 66.6 °F 29.72 in West 8.1 mph 14.9 mph 95% 0.00 in 0.00 W/m2
01:03 68.1 °F 66.6 °F 29.73 in West 8.1 mph 14.9 mph 95% 0.00 in 0.00 W/m2
01:04 68.1 °F 66.6 °F 29.73 in WSW 10.3 mph 14.9 mph 95% 0.00 in 0.00 W/m2
01:06 68.1 °F 66.6 °F 29.73 in West 5.8 mph 8.1 mph 95% 0.00 in 0.00 W/m2
01:08 68.2 °F 66.7 °F 29.73 in WSW 16.1 mph 16.1 mph 95% 0.00 in 0.00 W/m2
01:09 68.2 °F 66.7 °F 29.73 in West 8.1 mph 16.1 mph 95% 0.00 in 0.00 W/m2
01:11 68.2 °F 67.0 °F 29.73 in West 21.9 mph 21.9 mph 96% 0.00 in 0.00 W/m2
01:12 68.3 °F 67.1 °F 29.73 in WSW 18.4 mph 23.0 mph 96% 0.00 in 0.00 W/m2
01:14 68.4 °F 67.2 °F 29.74 in NW 8.1 mph 23.0 mph 96% 0.00 in 0.00 W/m2
01:17 68.7 °F 67.2 °F 29.74 in West 18.4 mph 18.4 mph 95% 0.00 in 0.00 W/m2
01:18 68.7 °F 67.2 °F 29.74 in West 18.4 mph 20.7 mph 95% 0.00 in 0.00 W/m2
01:19 68.8 °F 67.3 °F 29.74 in WSW 13.8 mph 20.7 mph 95% 0.00 in 0.00 W/m2
01:20 68.8 °F 67.3 °F 29.74 in WNW 12.6 mph 20.7 mph 95% 0.00 in 0.00 W/m2
01:22 68.8 °F 67.3 °F 29.74 in West 20.7 mph 20.7 mph 95% 0.00 in 0.00 W/m2
01:23 68.8 °F 67.3 °F 29.74 in WNW 12.6 mph 20.7 mph 95% 0.00 in 0.00 W/m2
01:25 68.8 °F 67.3 °F 29.74 in West 19.5 mph 24.1 mph 95% 0.00 in 0.00 W/m2
01:26 68.8 °F 67.3 °F 29.74 in West 6.9 mph 14.9 mph 95% 0.00 in 0.00 W/m2
01:28 68.8 °F 67.3 °F 29.74 in WSW 14.9 mph 14.9 mph 95% 0.00 in 0.00 W/m2
01:30 68.8 °F 67.0 °F 29.73 in West 11.5 mph 14.9 mph 94% 0.00 in 0.00 W/m2
01:31 68.8 °F 67.0 °F 29.73 in West 9.2 mph 13.8 mph 94% 0.00 in 0.00 W/m2
01:33 68.8 °F 67.0 °F 29.73 in West 10.3 mph 14.9 mph 94% 0.00 in 0.00 W/m2
01:34 68.8 °F 67.0 °F 29.73 in WNW 9.2 mph 14.9 mph 94% 0.00 in 0.00 W/m2
01:35 68.7 °F 66.9 °F 29.73 in West 8.1 mph 14.9 mph 94% 0.00 in 0.00 W/m2
01:38 68.7 °F 66.9 °F 29.72 in West 9.2 mph 12.6 mph 94% 0.00 in 0.00 W/m2
01:40 68.6 °F 66.8 °F 29.72 in West 13.8 mph 14.9 mph 94% 0.00 in 0.00 W/m2
01:41 68.7 °F 66.9 °F 29.72 in WSW 10.3 mph 14.9 mph 94% 0.00 in 0.00 W/m2
01:44 68.6 °F 66.8 °F 29.72 in WSW 6.9 mph 12.6 mph 94% 0.00 in 0.00 W/m2
01:46 68.5 °F 66.4 °F 29.71 in WSW 6.9 mph 10.3 mph 93% 0.00 in 0.00 W/m2
01:47 68.5 °F 66.4 °F 29.71 in WSW 10.3 mph 12.6 mph 93% 0.00 in 0.00 W/m2
01:49 68.5 °F 66.4 °F 29.71 in West 8.1 mph 12.6 mph 93% 0.00 in 0.00 W/m2
01:52 68.4 °F 66.3 °F 29.71 in WSW 5.8 mph 6.9 mph 93% 0.00 in 0.00 W/m2
01:54 68.3 °F 66.2 °F 29.71 in West 6.9 mph 9.2 mph 93% 0.00 in 0.00 W/m2
01:55 68.3 °F 66.2 °F 29.71 in WSW 10.3 mph 12.6 mph 93% 0.00 in 0.00 W/m2
01:57 68.3 °F 66.2 °F 29.71 in West 10.3 mph 10.3 mph 93% 0.00 in 0.00 W/m2
01:58 68.3 °F 66.2 °F 29.71 in WSW 11.5 mph 11.5 mph 93% 0.00 in 0.00 W/m2
01:59 68.3 °F 66.2 °F 29.71 in West 5.8 mph 11.5 mph 93% 0.00 in 0.00 W/m2
02:01 68.2 °F 66.1 °F 29.71 in West 8.1 mph 11.5 mph 93% 0.00 in 0.00 W/m2
02:03 68.2 °F 66.1 °F 29.71 in West 8.1 mph 12.6 mph 93% 0.00 in 0.00 W/m2
02:04 68.2 °F 66.1 °F 29.72 in West 9.2 mph 12.6 mph 93% 0.00 in 0.00 W/m2
02:07 68.1 °F 66.0 °F 29.72 in West 4.6 mph 11.5 mph 93% 0.00 in 0.00 W/m2
02:08 68.0 °F 65.9 °F 29.72 in WNW 6.9 mph 14.9 mph 93% 0.00 in 0.00 W/m2
02:10 68.0 °F 65.9 °F 29.72 in West 11.5 mph 14.9 mph 93% 0.00 in 0.00 W/m2
02:13 67.9 °F 65.8 °F 29.72 in West 8.1 mph 14.9 mph 93% 0.00 in 0.00 W/m2
02:14 67.9 °F 65.8 °F 29.72 in WNW 10.3 mph 14.9 mph 93% 0.00 in 0.00 W/m2
02:15 67.9 °F 65.8 °F 29.72 in West 8.1 mph 14.9 mph 93% 0.00 in 0.00 W/m2
02:18 67.8 °F 65.7 °F 29.72 in West 16.1 mph 17.2 mph 93% 0.00 in 0.00 W/m2
02:19 67.8 °F 65.7 °F 29.72 in WNW 9.2 mph 17.2 mph 93% 0.00 in 0.00 W/m2
02:20 67.7 °F 65.3 °F 29.72 in West 12.6 mph 17.2 mph 92% 0.00 in 0.00 W/m2
02:24 67.7 °F 65.3 °F 29.72 in WNW 10.3 mph 19.5 mph 92% 0.00 in 0.00 W/m2
02:26 67.6 °F 65.2 °F 29.72 in WNW 12.6 mph 19.5 mph 92% 0.00 in 0.00 W/m2
02:29 67.6 °F 64.9 °F 29.72 in West 12.6 mph 16.1 mph 91% 0.00 in 0.00 W/m2
02:30 67.6 °F 64.6 °F 29.72 in West 12.6 mph 16.1 mph 90% 0.00 in 0.00 W/m2
02:31 67.6 °F 64.6 °F 29.72 in West 11.5 mph 26.4 mph 90% 0.00 in 0.00 W/m2
02:35 67.6 °F 63.9 °F 29.73 in West 20.7 mph 24.1 mph 88% 0.00 in 0.00 W/m2
02:36 67.5 °F 63.8 °F 29.73 in NW 20.7 mph 24.1 mph 88% 0.00 in 0.00 W/m2
02:37 67.5 °F 63.5 °F 29.73 in NW 12.6 mph 24.1 mph 87% 0.00 in 0.00 W/m2
02:41 67.4 °F 63.1 °F 29.73 in WNW 11.5 mph 24.1 mph 86% 0.00 in 0.00 W/m2
02:42 67.3 °F 62.6 °F 29.73 in NW 8.1 mph 21.9 mph 85% 0.00 in 0.00 W/m2
02:46 67.1 °F 62.1 °F 29.74 in NW 6.9 mph 21.9 mph 84% 0.00 in 0.00 W/m2
02:47 67.1 °F 62.1 °F 29.73 in West 13.8 mph 20.7 mph 84% 0.00 in 0.00 W/m2
02:48 67.0 °F 61.7 °F 29.73 in WNW 12.6 mph 20.7 mph 83% 0.00 in 0.00 W/m2
02:51 66.8 °F 61.5 °F 29.74 in WNW 10.3 mph 20.7 mph 83% 0.00 in 0.00 W/m2
02:52 66.8 °F 61.5 °F 29.74 in NW 14.9 mph 21.9 mph 83% 0.00 in 0.00 W/m2
02:53 66.7 °F 61.4 °F 29.74 in WNW 11.5 mph 21.9 mph 83% 0.00 in 0.00 W/m2
02:56 66.3 °F 61.0 °F 29.74 in West 21.9 mph 21.9 mph 83% 0.00 in 0.00 W/m2
02:57 66.3 °F 61.0 °F 29.74 in WNW 14.9 mph 21.9 mph 83% 0.00 in 0.00 W/m2
02:59 66.1 °F 60.8 °F 29.74 in WNW 10.3 mph 24.1 mph 83% 0.00 in 0.00 W/m2
03:01 65.9 °F 60.6 °F 29.74 in WNW 17.2 mph 17.2 mph 83% 0.00 in 0.00 W/m2
03:02 65.9 °F 60.6 °F 29.74 in WNW 20.7 mph 20.7 mph 83% 0.00 in 0.00 W/m2
03:04 65.6 °F 60.3 °F 29.74 in NW 11.5 mph 20.7 mph 83% 0.00 in 0.00 W/m2
03:07 65.4 °F 60.5 °F 29.74 in WNW 17.2 mph 21.9 mph 84% 0.00 in 0.00 W/m2
03:10 65.2 °F 60.2 °F 29.74 in WNW 8.1 mph 21.9 mph 84% 0.00 in 0.00 W/m2
03:12 64.9 °F 60.0 °F 29.75 in NNW 20.7 mph 24.1 mph 84% 0.00 in 0.00 W/m2
03:13 64.9 °F 60.0 °F 29.75 in WNW 14.9 mph 24.1 mph 84% 0.00 in 0.00 W/m2
03:15 64.7 °F 59.8 °F 29.75 in WNW 17.2 mph 27.6 mph 84% 0.00 in 0.00 W/m2
03:17 64.6 °F 59.7 °F 29.75 in NW 13.8 mph 24.1 mph 84% 0.00 in 0.00 W/m2
03:18 64.6 °F 60.0 °F 29.75 in NW 16.1 mph 24.1 mph 85% 0.00 in 0.00 W/m2
03:20 64.5 °F 59.9 °F 29.75 in WNW 11.5 mph 24.1 mph 85% 0.00 in 0.00 W/m2
03:23 64.3 °F 59.7 °F 29.75 in WNW 11.5 mph 17.2 mph 85% 0.00 in 0.00 W/m2
03:24 64.3 °F 59.7 °F 29.75 in West 13.8 mph 17.2 mph 85% 0.00 in 0.00 W/m2
03:25 64.2 °F 59.9 °F 29.76 in WNW 11.5 mph 21.9 mph 86% 0.00 in 0.00 W/m2
03:28 64.0 °F 59.7 °F 29.76 in WNW 14.9 mph 26.4 mph 86% 0.00 in 0.00 W/m2
03:29 64.0 °F 59.7 °F 29.76 in WNW 11.5 mph 26.4 mph 86% 0.00 in 0.00 W/m2
03:30 63.8 °F 59.5 °F 29.76 in West 16.1 mph 26.4 mph 86% 0.00 in 0.00 W/m2
03:34 63.6 °F 59.0 °F 29.76 in West 18.4 mph 26.4 mph 85% 0.00 in 0.00 W/m2
03:35 63.5 °F 58.9 °F 29.76 in WNW 19.5 mph 26.4 mph 85% 0.00 in 0.00 W/m2
03:36 63.4 °F 58.8 °F 29.75 in NW 26.4 mph 26.4 mph 85% 0.00 in 0.00 W/m2
03:39 63.1 °F 58.5 °F 29.76 in WNW 20.7 mph 25.3 mph 85% 0.00 in 0.00 W/m2
03:40 63.1 °F 58.5 °F 29.76 in West 17.2 mph 25.3 mph 85% 0.00 in 0.00 W/m2
03:44 62.7 °F 58.1 °F 29.76 in WNW 16.1 mph 26.4 mph 85% 0.00 in 0.00 W/m2
03:45 62.6 °F 58.0 °F 29.76 in WNW 13.8 mph 26.4 mph 85% 0.00 in 0.00 W/m2
03:47 62.5 °F 57.9 °F 29.76 in NW 21.9 mph 26.4 mph 85% 0.00 in 0.00 W/m2
03:49 62.4 °F 58.2 °F 29.76 in WNW 11.5 mph 26.4 mph 86% 0.00 in 0.00 W/m2
03:50 62.3 °F 58.1 °F 29.76 in WNW 19.5 mph 26.4 mph 86% 0.00 in 0.00 W/m2
03:51 62.3 °F 58.1 °F 29.76 in NW 14.9 mph 26.4 mph 86% 0.00 in 0.00 W/m2
03:52 62.2 °F 58.0 °F 29.77 in NW 16.1 mph 24.1 mph 86% 0.00 in 0.00 W/m2
03:55 62.1 °F 57.9 °F 29.77 in WNW 19.5 mph 25.3 mph 86% 0.00 in 0.00 W/m2
03:56 62.1 °F 57.9 °F 29.77 in West 20.7 mph 25.3 mph 86% 0.00 in 0.00 W/m2
03:58 62.0 °F 57.8 °F 29.77 in WNW 20.7 mph 21.9 mph 86% 0.00 in 0.00 W/m2
04:00 62.0 °F 57.8 °F 29.77 in West 12.6 mph 23.0 mph 86% 0.00 in 0.00 W/m2
04:01 62.0 °F 57.8 °F 29.77 in WNW 11.5 mph 23.0 mph 86% 0.00 in 0.00 W/m2
04:02 61.9 °F 57.7 °F 29.77 in WNW 10.3 mph 19.5 mph 86% 0.00 in 0.00 W/m2
04:05 61.8 °F 57.6 °F 29.77 in WNW 13.8 mph 25.3 mph 86% 0.00 in 0.00 W/m2
04:06 61.8 °F 57.6 °F 29.77 in WSW 9.2 mph 25.3 mph 86% 0.00 in 0.00 W/m2
04:07 61.8 °F 57.6 °F 29.77 in NNW 12.6 mph 14.9 mph 86% 0.00 in 0.00 W/m2
04:10 61.6 °F 57.7 °F 29.77 in West 18.4 mph 18.4 mph 87% 0.00 in 0.00 W/m2
04:11 61.6 °F 57.7 °F 29.77 in WNW 9.2 mph 18.4 mph 87% 0.00 in 0.00 W/m2
04:12 61.6 °F 57.7 °F 29.77 in NW 6.9 mph 17.2 mph 87% 0.00 in 0.00 W/m2
04:15 61.5 °F 57.6 °F 29.77 in West 10.3 mph 17.2 mph 87% 0.00 in 0.00 W/m2
04:16 61.4 °F 57.5 °F 29.78 in NW 6.9 mph 17.2 mph 87% 0.00 in 0.00 W/m2
04:17 61.4 °F 57.5 °F 29.78 in WNW 9.2 mph 13.8 mph 87% 0.00 in 0.00 W/m2
04:20 61.3 °F 57.4 °F 29.78 in WNW 9.2 mph 13.8 mph 87% 0.00 in 0.00 W/m2
04:21 61.3 °F 57.4 °F 29.78 in WNW 9.2 mph 10.3 mph 87% 0.00 in 0.00 W/m2
04:22 61.3 °F 57.7 °F 29.78 in NW 10.3 mph 13.8 mph 88% 0.00 in 0.00 W/m2
04:26 61.2 °F 57.6 °F 29.78 in NW 8.1 mph 16.1 mph 88% 0.00 in 0.00 W/m2
04:27 61.2 °F 57.9 °F 29.78 in WNW 9.2 mph 14.9 mph 89% 0.00 in 0.00 W/m2
04:28 61.1 °F 57.8 °F 29.78 in WNW 6.9 mph 14.9 mph 89% 0.00 in 0.00 W/m2
04:31 61.0 °F 57.7 °F 29.78 in WNW 11.5 mph 17.2 mph 89% 0.00 in 0.00 W/m2
04:32 60.9 °F 57.6 °F 29.78 in WNW 10.3 mph 13.8 mph 89% 0.00 in 0.00 W/m2
04:33 60.8 °F 57.5 °F 29.78 in West 5.8 mph 13.8 mph 89% 0.00 in 0.00 W/m2
04:36 60.6 °F 57.3 °F 29.78 in West 10.3 mph 16.1 mph 89% 0.00 in 0.00 W/m2
04:38 60.5 °F 57.2 °F 29.78 in WNW 9.2 mph 16.1 mph 89% 0.00 in 0.00 W/m2
04:39 60.4 °F 57.2 °F 29.78 in NW 9.2 mph 16.1 mph 89% 0.00 in 0.00 W/m2
04:41 60.3 °F 57.0 °F 29.78 in West 8.1 mph 10.3 mph 89% 0.00 in 0.00 W/m2
04:43 60.1 °F 56.8 °F 29.78 in NW 9.2 mph 12.6 mph 89% 0.00 in 0.00 W/m2
04:44 60.0 °F 56.8 °F 29.78 in NW 9.2 mph 12.6 mph 89% 0.00 in 0.00 W/m2
04:45 60.0 °F 56.8 °F 29.78 in NW 11.5 mph 12.6 mph 89% 0.00 in 0.00 W/m2
04:47 59.9 °F 56.7 °F 29.79 in WNW 10.3 mph 11.5 mph 89% 0.00 in 0.00 W/m2
04:48 59.8 °F 56.6 °F 29.79 in West 10.3 mph 11.5 mph 89% 0.00 in 0.00 W/m2
04:51 59.6 °F 56.4 °F 29.79 in WNW 6.9 mph 11.5 mph 89% 0.00 in 0.00 W/m2
04:52 59.5 °F 56.3 °F 29.79 in WNW 11.5 mph 11.5 mph 89% 0.00 in 0.00 W/m2
04:54 59.4 °F 56.2 °F 29.79 in WNW 9.2 mph 13.8 mph 89% 0.00 in 0.00 W/m2
04:56 59.3 °F 56.1 °F 29.79 in NW 6.9 mph 13.8 mph 89% 0.00 in 0.00 W/m2
04:57 59.3 °F 56.1 °F 29.79 in NW 10.3 mph 12.6 mph 89% 0.00 in 0.00 W/m2
04:59 59.2 °F 56.3 °F 29.79 in NW 9.2 mph 13.8 mph 90% 0.00 in 0.00 W/m2
05:01 59.1 °F 56.2 °F 29.79 in NW 9.2 mph 9.2 mph 90% 0.00 in 0.00 W/m2
05:02 59.0 °F 56.1 °F 29.79 in West 5.8 mph 11.5 mph 90% 0.00 in 0.00 W/m2
05:04 58.9 °F 56.0 °F 29.79 in NW 8.1 mph 11.5 mph 90% 0.00 in 0.00 W/m2
05:07 58.8 °F 55.6 °F 29.79 in West 8.1 mph 9.2 mph 89% 0.00 in 0.00 W/m2
05:08 58.8 °F 55.6 °F 29.79 in NW 10.3 mph 10.3 mph 89% 0.00 in 0.00 W/m2
05:09 58.7 °F 55.5 °F 29.79 in WNW 4.6 mph 10.3 mph 89% 0.00 in 0.00 W/m2
05:13 58.6 °F 55.4 °F 29.79 in WNW 6.9 mph 10.3 mph 89% 0.00 in 0.00 W/m2
05:14 58.5 °F 55.6 °F 29.79 in NW 10.3 mph 10.3 mph 90% 0.00 in 0.00 W/m2
05:19 58.3 °F 55.4 °F 29.79 in WNW 9.2 mph 10.3 mph 90% 0.00 in 0.00 W/m2
05:20 58.2 °F 55.3 °F 29.79 in WNW 5.8 mph 10.3 mph 90% 0.00 in 0.00 W/m2
05:24 58.1 °F 55.2 °F 29.79 in West 8.1 mph 12.6 mph 90% 0.00 in 0.00 W/m2
05:25 58.1 °F 55.2 °F 29.79 in West 10.3 mph 12.6 mph 90% 0.00 in 0.00 W/m2
05:27 58.0 °F 55.1 °F 29.79 in WNW 5.8 mph 5.8 mph 90% 0.00 in 0.00 W/m2
05:30 57.9 °F 55.0 °F 29.80 in WNW 8.1 mph 8.1 mph 90% 0.00 in 0.00 W/m2
05:31 57.8 °F 54.9 °F 29.79 in West 2.3 mph 8.1 mph 90% 0.00 in 0.00 W/m2
05:32 57.8 °F 54.9 °F 29.79 in West 5.8 mph 6.9 mph 90% 0.00 in 0.00 W/m2
05:35 57.7 °F 54.8 °F 29.80 in West 8.1 mph 9.2 mph 90% 0.00 in 0.00 W/m2
05:36 57.7 °F 54.8 °F 29.80 in WNW 5.8 mph 9.2 mph 90% 0.00 in 0.00 W/m2
05:39 57.6 °F 54.7 °F 29.80 in West 5.8 mph 10.3 mph 90% 0.00 in 0.00 W/m2
05:40 57.6 °F 54.7 °F 29.80 in West 8.1 mph 10.3 mph 90% 0.00 in 0.00 W/m2
05:41 57.6 °F 54.7 °F 29.80 in WNW 6.9 mph 10.3 mph 90% 0.00 in 0.00 W/m2
05:45 57.5 °F 54.6 °F 29.80 in WNW 4.6 mph 13.8 mph 90% 0.00 in 0.00 W/m2
05:46 57.4 °F 54.5 °F 29.80 in WNW 4.6 mph 13.8 mph 90% 0.00 in 0.00 W/m2
05:50 57.4 °F 54.5 °F 29.80 in West 10.3 mph 11.5 mph 90% 0.00 in 0.00 W/m2
05:51 57.4 °F 54.5 °F 29.80 in West 5.8 mph 11.5 mph 90% 0.00 in 0.00 W/m2
05:52 57.4 °F 54.5 °F 29.80 in West 10.3 mph 11.5 mph 90% 0.00 in 0.00 W/m2
05:55 57.3 °F 54.4 °F 29.81 in WNW 8.1 mph 13.8 mph 90% 0.00 in 0.00 W/m2
05:57 57.3 °F 54.4 °F 29.81 in WNW 11.5 mph 11.5 mph 90% 0.00 in 0.00 W/m2
05:58 57.3 °F 54.4 °F 29.81 in West 4.6 mph 11.5 mph 90% 0.00 in 0.00 W/m2
06:02 57.2 °F 54.3 °F 29.81 in WNW 5.8 mph 6.9 mph 90% 0.00 in 0.00 W/m2
06:04 57.2 °F 54.3 °F 29.81 in West 9.2 mph 9.2 mph 90% 0.00 in 0.00 W/m2
06:07 57.2 °F 54.3 °F 29.80 in West 4.6 mph 8.1 mph 90% 0.00 in 0.00 W/m2
06:09 57.2 °F 54.3 °F 29.81 in WSW 4.6 mph 9.2 mph 90% 0.00 in 0.00 W/m2
06:10 57.1 °F 54.2 °F 29.81 in West 3.4 mph 9.2 mph 90% 0.00 in 0.00 W/m2
06:12 57.1 °F 54.2 °F 29.81 in West 6.9 mph 9.2 mph 90% 0.00 in 0.00 W/m2
06:14 57.0 °F 54.1 °F 29.81 in West 9.2 mph 9.2 mph 90% 0.00 in 0.00 W/m2
06:16 57.0 °F 54.1 °F 29.81 in West 5.8 mph 9.2 mph 90% 0.00 in 0.00 W/m2
06:17 56.9 °F 54.0 °F 29.81 in West 5.8 mph 9.2 mph 90% 0.00 in 0.00 W/m2
06:18 56.9 °F 54.0 °F 29.81 in West 5.8 mph 9.2 mph 90% 0.00 in 0.00 W/m2
06:20 56.8 °F 53.9 °F 29.81 in WNW 3.4 mph 9.2 mph 90% 0.00 in 0.00 W/m2
06:21 56.8 °F 53.9 °F 29.81 in WNW 4.6 mph 6.9 mph 90% 0.00 in 0.00 W/m2
06:23 56.8 °F 53.9 °F 29.81 in West 4.6 mph 8.1 mph 90% 0.00 in 0.00 W/m2
06:26 56.7 °F 53.8 °F 29.81 in West 5.8 mph 9.2 mph 90% 0.00 in 0.00 W/m2
06:27 56.7 °F 53.8 °F 29.81 in WNW 4.6 mph 9.2 mph 90% 0.00 in 0.00 W/m2
06:28 56.6 °F 53.7 °F 29.81 in SW 3.4 mph 9.2 mph 90% 0.00 in 0.00 W/m2
06:32 56.5 °F 53.6 °F 29.81 in West 4.6 mph 8.1 mph 90% 0.00 in 0.00 W/m2
06:34 56.5 °F 53.9 °F 29.81 in West 4.6 mph 8.1 mph 91% 0.00 in 0.00 W/m2
06:37 56.4 °F 53.8 °F 29.81 in West 5.8 mph 11.5 mph 91% 0.00 in 0.00 W/m2
06:39 56.4 °F 53.8 °F 29.81 in West 6.9 mph 11.5 mph 91% 0.00 in 0.00 W/m2
06:43 56.3 °F 53.7 °F 29.81 in WNW 3.4 mph 9.2 mph 91% 0.00 in 5.00 W/m2
06:44 56.3 °F 53.7 °F 29.82 in West 6.9 mph 9.2 mph 91% 0.00 in 5.00 W/m2
06:45 56.3 °F 53.7 °F 29.82 in West 6.9 mph 12.6 mph 91% 0.00 in 7.00 W/m2
06:48 56.2 °F 53.6 °F 29.82 in West 10.3 mph 11.5 mph 91% 0.00 in 7.00 W/m2
06:49 56.2 °F 53.6 °F 29.82 in West 8.1 mph 13.8 mph 91% 0.00 in 9.00 W/m2
06:51 56.2 °F 53.6 °F 29.81 in West 9.2 mph 9.2 mph 91% 0.00 in 9.00 W/m2
06:53 56.1 °F 53.5 °F 29.82 in West 8.1 mph 9.2 mph 91% 0.00 in 11.00 W/m2
06:55 56.1 °F 53.5 °F 29.82 in West 4.6 mph 9.2 mph 91% 0.00 in 11.00 W/m2
06:56 56.1 °F 53.5 °F 29.82 in West 9.2 mph 9.2 mph 91% 0.00 in 12.00 W/m2
06:58 56.1 °F 53.5 °F 29.82 in West 5.8 mph 9.2 mph 91% 0.00 in 12.00 W/m2
06:59 56.1 °F 53.5 °F 29.82 in West 4.6 mph 9.2 mph 91% 0.00 in 14.00 W/m2
07:01 56.1 °F 53.5 °F 29.82 in West 3.4 mph 9.2 mph 91% 0.00 in 14.00 W/m2
07:03 56.1 °F 53.5 °F 29.82 in West 8.1 mph 10.3 mph 91% 0.00 in 16.00 W/m2
07:05 56.1 °F 53.5 °F 29.82 in West 5.8 mph 10.3 mph 91% 0.00 in 16.00 W/m2
07:06 56.1 °F 53.5 °F 29.82 in West 4.6 mph 4.6 mph 91% 0.00 in 18.00 W/m2
07:08 56.2 °F 53.6 °F 29.82 in West 6.9 mph 10.3 mph 91% 0.00 in 18.00 W/m2
07:10 56.2 °F 53.6 °F 29.82 in WNW 8.1 mph 10.3 mph 91% 0.00 in 19.00 W/m2
07:12 56.2 °F 53.6 °F 29.82 in West 4.6 mph 9.2 mph 91% 0.00 in 19.00 W/m2
07:14 56.2 °F 53.6 °F 29.82 in West 8.1 mph 10.3 mph 91% 0.00 in 19.00 W/m2
07:16 56.2 °F 53.6 °F 29.82 in West 9.2 mph 10.3 mph 91% 0.00 in 21.00 W/m2
07:17 56.3 °F 53.7 °F 29.82 in West 3.4 mph 9.2 mph 91% 0.00 in 21.00 W/m2
07:18 56.3 °F 53.7 °F 29.82 in WSW 6.9 mph 11.5 mph 91% 0.00 in 21.00 W/m2
07:20 56.3 °F 53.7 °F 29.82 in West 11.5 mph 11.5 mph 91% 0.00 in 23.00 W/m2
07:21 56.3 °F 53.7 °F 29.82 in WSW 6.9 mph 12.6 mph 91% 0.00 in 23.00 W/m2
07:22 56.4 °F 53.8 °F 29.82 in West 6.9 mph 8.1 mph 91% 0.00 in 21.00 W/m2
07:24 56.4 °F 53.8 °F 29.82 in West 5.8 mph 11.5 mph 91% 0.00 in 23.00 W/m2
07:25 56.4 °F 53.8 °F 29.82 in West 6.9 mph 11.5 mph 91% 0.00 in 23.00 W/m2
07:26 56.4 °F 53.8 °F 29.82 in West 6.9 mph 11.5 mph 91% 0.00 in 23.00 W/m2
07:27 56.4 °F 53.8 °F 29.82 in WNW 6.9 mph 11.5 mph 91% 0.00 in 25.00 W/m2
07:29 56.5 °F 53.9 °F 29.82 in WSW 5.8 mph 12.6 mph 91% 0.00 in 25.00 W/m2
07:31 56.5 °F 53.9 °F 29.82 in West 5.8 mph 11.5 mph 91% 0.00 in 25.00 W/m2
07:32 56.6 °F 54.0 °F 29.82 in West 6.9 mph 11.5 mph 91% 0.00 in 26.00 W/m2
07:35 56.6 °F 54.0 °F 29.82 in West 11.5 mph 14.9 mph 91% 0.00 in 26.00 W/m2
07:36 56.6 °F 54.0 °F 29.82 in West 5.8 mph 11.5 mph 91% 0.00 in 26.00 W/m2
07:38 56.6 °F 54.0 °F 29.82 in West 6.9 mph 11.5 mph 91% 0.00 in 28.00 W/m2
07:40 56.7 °F 54.1 °F 29.82 in WNW 12.6 mph 14.9 mph 91% 0.00 in 28.00 W/m2
07:41 56.8 °F 53.9 °F 29.82 in West 11.5 mph 11.5 mph 90% 0.00 in 30.00 W/m2
07:42 56.8 °F 53.9 °F 29.82 in West 6.9 mph 11.5 mph 90% 0.00 in 30.00 W/m2
07:44 56.8 °F 53.9 °F 29.82 in WSW 8.1 mph 12.6 mph 90% 0.00 in 30.00 W/m2
07:47 57.0 °F 54.1 °F 29.82 in West 9.2 mph 9.2 mph 90% 0.00 in 32.00 W/m2
07:49 57.1 °F 54.2 °F 29.82 in WSW 13.8 mph 13.8 mph 90% 0.00 in 32.00 W/m2
07:52 57.2 °F 54.0 °F 29.82 in West 9.2 mph 11.5 mph 89% 0.00 in 33.00 W/m2
07:55 57.4 °F 54.2 °F 29.81 in WSW 8.1 mph 12.6 mph 89% 0.00 in 33.00 W/m2
07:57 57.5 °F 54.3 °F 29.81 in WNW 9.2 mph 20.7 mph 89% 0.00 in 33.00 W/m2
07:58 57.6 °F 54.4 °F 29.81 in WNW 8.1 mph 20.7 mph 89% 0.00 in 33.00 W/m2
08:00 57.7 °F 54.2 °F 29.81 in West 8.1 mph 20.7 mph 88% 0.00 in 35.00 W/m2
08:02 57.9 °F 54.4 °F 29.81 in WNW 11.5 mph 14.9 mph 88% 0.00 in 35.00 W/m2
08:03 57.9 °F 54.4 °F 29.81 in West 13.8 mph 14.9 mph 88% 0.00 in 35.00 W/m2
08:05 58.1 °F 54.6 °F 29.82 in West 11.5 mph 19.5 mph 88% 0.00 in 35.00 W/m2
08:08 58.4 °F 54.5 °F 29.81 in West 6.9 mph 16.1 mph 87% 0.00 in 39.00 W/m2
08:11 58.6 °F 54.4 °F 29.81 in WSW 20.7 mph 20.7 mph 86% 0.00 in 44.00 W/m2
08:13 58.8 °F 54.6 °F 29.81 in NW 19.5 mph 20.7 mph 86% 0.00 in 49.00 W/m2
08:15 58.9 °F 54.7 °F 29.82 in WNW 10.3 mph 20.7 mph 86% 0.00 in 49.00 W/m2
08:16 59.0 °F 54.5 °F 29.81 in West 16.1 mph 19.5 mph 85% 0.00 in 255.00 W/m2
08:18 59.1 °F 54.6 °F 29.82 in West 16.1 mph 21.9 mph 85% 0.00 in 262.00 W/m2
08:19 59.1 °F 54.6 °F 29.82 in West 12.6 mph 21.9 mph 85% 0.00 in 265.00 W/m2
08:21 59.3 °F 54.8 °F 29.82 in West 8.1 mph 13.8 mph 85% 0.00 in 272.00 W/m2
08:23 59.4 °F 54.9 °F 29.82 in NW 16.1 mph 18.4 mph 85% 0.00 in 281.00 W/m2
08:24 59.4 °F 54.6 °F 29.82 in West 18.4 mph 23.0 mph 84% 0.00 in 283.00 W/m2
08:26 59.5 °F 54.3 °F 29.82 in WNW 12.6 mph 20.7 mph 83% 0.00 in 292.00 W/m2
08:28 59.5 °F 54.3 °F 29.82 in WNW 19.5 mph 23.0 mph 83% 0.00 in 297.00 W/m2
08:29 59.5 °F 54.3 °F 29.82 in WNW 13.8 mph 23.0 mph 83% 0.00 in 299.00 W/m2
08:32 59.6 °F 54.4 °F 29.82 in NW 10.3 mph 17.2 mph 83% 0.00 in 311.00 W/m2
08:34 59.7 °F 54.5 °F 29.82 in WNW 14.9 mph 17.2 mph 83% 0.00 in 318.00 W/m2
08:38 60.0 °F 54.8 °F 29.82 in West 19.5 mph 19.5 mph 83% 0.00 in 330.00 W/m2
08:39 60.0 °F 54.8 °F 29.82 in NW 12.6 mph 19.5 mph 83% 0.00 in 336.00 W/m2
08:40 60.0 °F 54.8 °F 29.82 in WNW 10.3 mph 20.7 mph 83% 0.00 in 341.00 W/m2
08:44 60.2 °F 54.7 °F 29.82 in NW 12.6 mph 24.1 mph 82% 0.00 in 353.00 W/m2
08:45 60.3 °F 54.8 °F 29.82 in WNW 19.5 mph 24.1 mph 82% 0.00 in 369.00 W/m2
08:46 60.3 °F 54.8 °F 29.82 in NW 13.8 mph 24.1 mph 82% 0.00 in 369.00 W/m2
08:49 60.4 °F 54.9 °F 29.82 in WNW 12.6 mph 17.2 mph 82% 0.00 in 376.00 W/m2
08:50 60.5 °F 55.0 °F 29.82 in WNW 21.9 mph 21.9 mph 82% 0.00 in 415.00 W/m2
08:51 60.5 °F 54.7 °F 29.82 in West 11.5 mph 11.5 mph 81% 0.00 in 118.00 W/m2
08:54 60.6 °F 54.8 °F 29.83 in SW 13.8 mph 25.3 mph 81% 0.00 in 385.00 W/m2
08:56 60.6 °F 54.8 °F 29.83 in WNW 18.4 mph 25.3 mph 81% 0.00 in 385.00 W/m2
08:57 60.6 °F 54.8 °F 29.82 in WNW 11.5 mph 19.5 mph 81% 0.00 in 494.00 W/m2
08:59 60.6 °F 54.8 °F 29.83 in NW 19.5 mph 21.9 mph 81% 0.00 in 213.00 W/m2
09:01 60.5 °F 54.3 °F 29.83 in WNW 21.9 mph 23.0 mph 80% 0.00 in 190.00 W/m2
09:02 60.4 °F 54.2 °F 29.83 in NW 14.9 mph 21.9 mph 80% 0.00 in 190.00 W/m2
09:04 60.3 °F 54.5 °F 29.83 in WNW 17.2 mph 23.0 mph 81% 0.00 in 185.00 W/m2
09:06 60.2 °F 54.4 °F 29.83 in WNW 11.5 mph 13.8 mph 81% 0.00 in 128.00 W/m2
09:07 60.1 °F 54.3 °F 29.83 in NW 19.5 mph 19.5 mph 81% 0.00 in 130.00 W/m2
09:10 60.0 °F 54.2 °F 29.83 in WNW 10.3 mph 19.5 mph 81% 0.00 in 207.00 W/m2
09:11 59.9 °F 54.1 °F 29.83 in NW 17.2 mph 17.2 mph 81% 0.00 in 162.00 W/m2
09:12 59.9 °F 54.4 °F 29.83 in NW 8.1 mph 17.2 mph 82% 0.00 in 149.00 W/m2
09:13 59.9 °F 54.4 °F 29.83 in West 20.7 mph 20.7 mph 82% 0.00 in 183.00 W/m2
09:15 59.9 °F 54.1 °F 29.83 in NW 14.9 mph 20.7 mph 81% 0.00 in 200.00 W/m2
09:16 59.9 °F 54.1 °F 29.83 in WNW 10.3 mph 21.9 mph 81% 0.00 in 163.00 W/m2
09:18 59.9 °F 54.4 °F 29.83 in West 11.5 mph 21.9 mph 82% 0.00 in 207.00 W/m2
09:20 60.0 °F 54.5 °F 29.83 in WNW 16.1 mph 21.9 mph 82% 0.00 in 207.00 W/m2
09:22 60.3 °F 54.8 °F 29.83 in WNW 8.1 mph 12.6 mph 82% 0.00 in 355.00 W/m2
09:24 60.4 °F 54.9 °F 29.83 in WNW 9.2 mph 12.6 mph 82% 0.00 in 202.00 W/m2
09:25 60.4 °F 54.9 °F 29.83 in WNW 8.1 mph 12.6 mph 82% 0.00 in 186.00 W/m2
09:27 60.4 °F 54.9 °F 29.83 in NW 11.5 mph 17.2 mph 82% 0.00 in 186.00 W/m2
09:29 60.5 °F 55.0 °F 29.84 in NW 16.1 mph 25.3 mph 82% 0.00 in 243.00 W/m2
09:30 60.4 °F 54.5 °F 29.84 in WNW 11.5 mph 25.3 mph 81% 0.00 in 292.00 W/m2
09:31 60.4 °F 54.5 °F 29.83 in NW 9.2 mph 11.5 mph 81% 0.00 in 162.00 W/m2
09:32 60.5 °F 54.7 °F 29.83 in WNW 10.3 mph 12.6 mph 81% 0.00 in 165.00 W/m2
09:34 60.5 °F 54.7 °F 29.84 in NW 16.1 mph 16.1 mph 81% 0.00 in 190.00 W/m2
09:36 60.5 °F 54.7 °F 29.84 in WNW 10.3 mph 19.5 mph 81% 0.00 in 211.00 W/m2
09:37 60.6 °F 54.8 °F 29.84 in WNW 4.6 mph 13.8 mph 81% 0.00 in 160.00 W/m2
09:38 60.6 °F 54.8 °F 29.84 in NW 10.3 mph 13.8 mph 81% 0.00 in 195.00 W/m2
09:39 60.6 °F 54.8 °F 29.84 in NW 17.2 mph 23.0 mph 81% 0.00 in 253.00 W/m2
09:42 60.5 °F 54.0 °F 29.84 in NNW 12.6 mph 21.9 mph 79% 0.00 in 257.00 W/m2
09:43 60.5 °F 54.0 °F 29.84 in NW 10.3 mph 21.9 mph 79% 0.00 in 260.00 W/m2
09:44 60.4 °F 53.9 °F 29.84 in NW 10.3 mph 21.9 mph 79% 0.00 in 192.00 W/m2
09:45 60.4 °F 53.5 °F 29.84 in NW 11.5 mph 21.9 mph 78% 0.00 in 185.00 W/m2
09:47 60.3 °F 53.8 °F 29.84 in WNW 21.9 mph 21.9 mph 79% 0.00 in 199.00 W/m2
09:48 60.3 °F 53.4 °F 29.84 in NNW 12.6 mph 21.9 mph 78% 0.00 in 178.00 W/m2
09:50 60.3 °F 53.8 °F 29.85 in WNW 21.9 mph 21.9 mph 79% 0.00 in 181.00 W/m2
09:53 60.3 °F 53.8 °F 29.85 in NW 11.5 mph 12.6 mph 79% 0.00 in 188.00 W/m2
09:56 60.2 °F 53.7 °F 29.84 in WNW 19.5 mph 23.0 mph 79% 0.00 in 209.00 W/m2
09:57 60.2 °F 53.3 °F 29.85 in WNW 13.8 mph 17.2 mph 78% 0.00 in 202.00 W/m2
09:58 60.3 °F 53.8 °F 29.84 in West 13.8 mph 21.9 mph 79% 0.00 in 218.00 W/m2
09:59 60.2 °F 53.7 °F 29.84 in WNW 6.9 mph 21.9 mph 79% 0.00 in 258.00 W/m2
10:02 60.4 °F 53.9 °F 29.85 in NW 21.9 mph 23.0 mph 79% 0.00 in 239.00 W/m2
10:03 60.4 °F 53.9 °F 29.85 in WNW 16.1 mph 23.0 mph 79% 0.00 in 234.00 W/m2
10:04 60.5 °F 54.0 °F 29.85 in NW 21.9 mph 23.0 mph 79% 0.00 in 236.00 W/m2
10:05 60.5 °F 54.0 °F 29.85 in WNW 6.9 mph 23.0 mph 79% 0.00 in 253.00 W/m2
10:07 60.6 °F 54.4 °F 29.85 in West 17.2 mph 23.0 mph 80% 0.00 in 271.00 W/m2
10:09 60.7 °F 54.2 °F 29.85 in NNW 19.5 mph 23.0 mph 79% 0.00 in 241.00 W/m2
10:10 60.6 °F 54.1 °F 29.85 in NW 24.1 mph 24.1 mph 79% 0.00 in 214.00 W/m2
10:14 60.6 °F 53.7 °F 29.85 in WNW 12.6 mph 21.9 mph 78% 0.00 in 271.00 W/m2
10:15 60.7 °F 53.8 °F 29.85 in WNW 12.6 mph 21.9 mph 78% 0.00 in 359.00 W/m2
10:16 60.7 °F 53.8 °F 29.85 in NW 19.5 mph 21.9 mph 78% 0.00 in 359.00 W/m2
10:18 60.7 °F 53.8 °F 29.85 in NNW 12.6 mph 26.4 mph 78% 0.00 in 221.00 W/m2
10:19 60.7 °F 53.5 °F 29.85 in NW 9.2 mph 26.4 mph 77% 0.00 in 204.00 W/m2
10:20 60.7 °F 53.8 °F 29.85 in WNW 13.8 mph 26.4 mph 78% 0.00 in 183.00 W/m2
10:21 60.7 °F 53.8 °F 29.85 in WNW 12.6 mph 13.8 mph 78% 0.00 in 241.00 W/m2
10:24 60.7 °F 53.8 °F 29.86 in WNW 10.3 mph 14.9 mph 78% 0.00 in 221.00 W/m2
10:25 60.8 °F 53.9 °F 29.86 in NNW 17.2 mph 23.0 mph 78% 0.00 in 221.00 W/m2
10:27 60.9 °F 53.7 °F 29.86 in NW 18.4 mph 21.9 mph 77% 0.00 in 642.00 W/m2
10:30 61.4 °F 53.4 °F 29.86 in WNW 16.1 mph 23.0 mph 75% 0.00 in 696.00 W/m2
10:31 61.6 °F 53.6 °F 29.86 in West 16.1 mph 23.0 mph 75% 0.00 in 696.00 W/m2
10:34 61.9 °F 53.2 °F 29.86 in NW 10.3 mph 21.9 mph 73% 0.00 in 374.00 W/m2
10:35 61.9 °F 53.5 °F 29.86 in NW 19.5 mph 25.3 mph 74% 0.00 in 404.00 W/m2
10:36 61.9 °F 53.2 °F 29.86 in WNW 24.1 mph 25.3 mph 73% 0.00 in 343.00 W/m2
10:40 61.7 °F 53.0 °F 29.86 in WNW 17.2 mph 27.6 mph 73% 0.00 in 318.00 W/m2
10:41 61.7 °F 53.0 °F 29.86 in West 12.6 mph 27.6 mph 73% 0.00 in 237.00 W/m2
10:43 61.5 °F 53.2 °F 29.86 in WNW 11.5 mph 23.0 mph 74% 0.00 in 151.00 W/m2
10:45 61.4 °F 53.4 °F 29.87 in NW 12.6 mph 23.0 mph 75% 0.00 in 128.00 W/m2
10:46 61.4 °F 53.4 °F 29.87 in WNW 10.3 mph 23.0 mph 75% 0.00 in 132.00 W/m2
10:48 61.2 °F 53.2 °F 29.87 in NW 8.1 mph 20.7 mph 75% 0.00 in 83.00 W/m2
10:50 61.0 °F 53.0 °F 29.87 in WNW 12.6 mph 20.7 mph 75% 0.00 in 93.00 W/m2
10:51 61.0 °F 53.0 °F 29.87 in WNW 9.2 mph 20.7 mph 75% 0.00 in 100.00 W/m2
10:53 60.7 °F 53.1 °F 29.87 in NW 21.9 mph 21.9 mph 76% 0.00 in 109.00 W/m2
10:54 60.7 °F 53.1 °F 29.87 in WNW 14.9 mph 21.9 mph 76% 0.00 in 109.00 W/m2
10:56 60.6 °F 53.4 °F 29.87 in WNW 9.2 mph 11.5 mph 77% 0.00 in 130.00 W/m2
10:57 60.5 °F 53.3 °F 29.87 in WNW 10.3 mph 11.5 mph 77% 0.00 in 125.00 W/m2
10:59 60.5 °F 53.3 °F 29.87 in NW 12.6 mph 13.8 mph 77% 0.00 in 114.00 W/m2
11:01 60.5 °F 53.6 °F 29.88 in NW 10.3 mph 16.1 mph 78% 0.00 in 105.00 W/m2
11:02 60.5 °F 53.6 °F 29.88 in NW 11.5 mph 16.1 mph 78% 0.00 in 113.00 W/m2
11:05 60.5 °F 53.6 °F 29.88 in WNW 6.9 mph 16.1 mph 78% 0.00 in 128.00 W/m2
11:06 60.5 °F 53.3 °F 29.88 in NW 25.3 mph 25.3 mph 77% 0.00 in 116.00 W/m2
11:07 60.5 °F 53.3 °F 29.88 in NW 17.2 mph 25.3 mph 77% 0.00 in 116.00 W/m2
11:11 60.5 °F 53.6 °F 29.88 in WNW 9.2 mph 25.3 mph 78% 0.00 in 193.00 W/m2
11:12 60.5 °F 53.6 °F 29.88 in WNW 6.9 mph 11.5 mph 78% 0.00 in 243.00 W/m2
11:16 60.8 °F 53.9 °F 29.88 in NNW 13.8 mph 14.9 mph 78% 0.00 in 320.00 W/m2
11:17 60.9 °F 54.0 °F 29.88 in NW 14.9 mph 14.9 mph 78% 0.00 in 294.00 W/m2
11:18 61.0 °F 54.1 °F 29.88 in WNW 6.9 mph 14.9 mph 78% 0.00 in 274.00 W/m2
11:21 61.3 °F 54.0 °F 29.88 in NNW 16.1 mph 18.4 mph 77% 0.00 in 346.00 W/m2
11:22 61.4 °F 53.8 °F 29.88 in WNW 8.1 mph 18.4 mph 76% 0.00 in 267.00 W/m2
11:23 61.5 °F 53.9 °F 29.88 in NW 16.1 mph 19.5 mph 76% 0.00 in 236.00 W/m2
11:24 61.5 °F 53.9 °F 29.88 in NNW 17.2 mph 19.5 mph 76% 0.00 in 255.00 W/m2
11:26 61.4 °F 53.4 °F 29.88 in NNW 13.8 mph 17.2 mph 75% 0.00 in 329.00 W/m2
11:27 61.5 °F 53.9 °F 29.89 in West 18.4 mph 18.4 mph 76% 0.00 in 334.00 W/m2
11:28 61.5 °F 53.5 °F 29.89 in WNW 12.6 mph 18.4 mph 75% 0.00 in 322.00 W/m2
11:30 61.6 °F 53.6 °F 29.89 in WNW 14.9 mph 18.4 mph 75% 0.00 in 327.00 W/m2
11:32 61.6 °F 53.6 °F 29.88 in WNW 16.1 mph 16.1 mph 75% 0.00 in 396.00 W/m2
11:33 61.6 °F 53.6 °F 29.88 in WNW 12.6 mph 16.1 mph 75% 0.00 in 396.00 W/m2
11:35 61.8 °F 53.8 °F 29.88 in WNW 16.1 mph 19.5 mph 75% 0.00 in 396.00 W/m2
11:38 61.8 °F 53.4 °F 29.89 in NW 10.3 mph 18.4 mph 74% 0.00 in 313.00 W/m2
11:39 61.8 °F 53.4 °F 29.89 in WNW 17.2 mph 20.7 mph 74% 0.00 in 292.00 W/m2
11:40 61.7 °F 53.7 °F 29.89 in SW 13.8 mph 20.7 mph 75% 0.00 in 320.00 W/m2
11:43 61.7 °F 53.3 °F 29.89 in West 18.4 mph 19.5 mph 74% 0.00 in 278.00 W/m2
11:44 61.7 °F 53.3 °F 29.89 in WNW 23.0 mph 23.0 mph 74% 0.00 in 302.00 W/m2
11:45 61.7 °F 53.7 °F 29.89 in WNW 9.2 mph 23.0 mph 75% 0.00 in 345.00 W/m2
11:48 61.8 °F 53.4 °F 29.89 in NW 12.6 mph 21.9 mph 74% 0.00 in 355.00 W/m2
11:49 61.8 °F 53.4 °F 29.89 in WNW 20.7 mph 21.9 mph 74% 0.00 in 381.00 W/m2
11:51 62.0 °F 53.6 °F 29.89 in WNW 21.9 mph 28.8 mph 74% 0.00 in 334.00 W/m2
11:54 62.1 °F 53.3 °F 29.89 in WNW 20.7 mph 20.7 mph 73% 0.00 in 339.00 W/m2
11:55 62.1 °F 53.7 °F 29.89 in WNW 16.1 mph 21.9 mph 74% 0.00 in 345.00 W/m2
11:56 62.2 °F 53.8 °F 29.89 in NW 6.9 mph 21.9 mph 74% 0.00 in 353.00 W/m2
11:59 62.4 °F 54.4 °F 29.90 in WNW 6.9 mph 16.1 mph 75% 0.00 in 209.00 W/m2
12:00 62.4 °F 54.4 °F 29.90 in NW 9.2 mph 16.1 mph 75% 0.00 in 202.00 W/m2
12:01 62.4 °F 54.0 °F 29.90 in NW 8.1 mph 17.2 mph 74% 0.00 in 200.00 W/m2
12:02 62.4 °F 54.0 °F 29.90 in WNW 12.6 mph 17.2 mph 74% 0.00 in 214.00 W/m2
12:04 62.2 °F 53.5 °F 29.90 in NW 9.2 mph 20.7 mph 73% 0.00 in 257.00 W/m2
12:06 62.2 °F 53.8 °F 29.90 in WNW 13.8 mph 20.7 mph 74% 0.00 in 301.00 W/m2
12:10 62.2 °F 53.8 °F 29.90 in NW 10.3 mph 17.2 mph 74% 0.00 in 369.00 W/m2
12:11 62.3 °F 53.9 °F 29.90 in WNW 13.8 mph 13.8 mph 74% 0.00 in 318.00 W/m2
12:15 62.5 °F 54.1 °F 29.90 in NW 8.1 mph 19.5 mph 74% 0.00 in 306.00 W/m2
12:16 62.5 °F 54.5 °F 29.90 in NW 9.2 mph 11.5 mph 75% 0.00 in 306.00 W/m2
12:18 62.5 °F 54.1 °F 29.90 in WNW 6.9 mph 11.5 mph 74% 0.00 in 308.00 W/m2
12:20 62.5 °F 54.1 °F 29.91 in NW 10.3 mph 17.2 mph 74% 0.00 in 229.00 W/m2
12:21 62.5 °F 54.5 °F 29.91 in NW 13.8 mph 13.8 mph 75% 0.00 in 232.00 W/m2
12:22 62.5 °F 54.5 °F 29.91 in NNW 8.1 mph 13.8 mph 75% 0.00 in 220.00 W/m2
12:23 62.5 °F 54.5 °F 29.91 in WNW 16.1 mph 18.4 mph 75% 0.00 in 185.00 W/m2
12:26 62.3 °F 53.5 °F 29.91 in WNW 10.3 mph 18.4 mph 73% 0.00 in 132.00 W/m2
12:27 62.2 °F 53.5 °F 29.91 in NW 13.8 mph 18.4 mph 73% 0.00 in 128.00 W/m2
12:28 62.0 °F 53.3 °F 29.91 in NW 12.6 mph 18.4 mph 73% 0.00 in 130.00 W/m2
12:31 61.8 °F 53.4 °F 29.91 in NNW 9.2 mph 21.9 mph 74% 0.00 in 98.00 W/m2
12:32 61.8 °F 53.4 °F 29.91 in WNW 19.5 mph 19.5 mph 74% 0.00 in 113.00 W/m2
12:33 61.7 °F 53.3 °F 29.92 in WNW 23.0 mph 23.0 mph 74% 0.00 in 116.00 W/m2
12:37 61.5 °F 53.5 °F 29.92 in NW 13.8 mph 18.4 mph 75% 0.00 in 229.00 W/m2
12:38 61.5 °F 53.5 °F 29.92 in North 19.5 mph 19.5 mph 75% 0.00 in 227.00 W/m2
12:39 61.5 °F 53.9 °F 29.92 in NNW 12.6 mph 19.5 mph 76% 0.00 in 218.00 W/m2
12:43 61.6 °F 53.6 °F 29.92 in NW 9.2 mph 23.0 mph 75% 0.00 in 185.00 W/m2
12:44 61.6 °F 53.6 °F 29.92 in WSW 5.8 mph 23.0 mph 75% 0.00 in 144.00 W/m2
12:47 61.7 °F 53.7 °F 29.92 in NW 8.1 mph 13.8 mph 75% 0.00 in 120.00 W/m2
12:48 61.6 °F 53.6 °F 29.92 in NW 18.4 mph 18.4 mph 75% 0.00 in 127.00 W/m2
12:49 61.6 °F 53.6 °F 29.92 in WNW 8.1 mph 18.4 mph 75% 0.00 in 132.00 W/m2
12:50 61.5 °F 53.2 °F 29.92 in WNW 12.6 mph 18.4 mph 74% 0.00 in 135.00 W/m2
12:52 61.4 °F 53.4 °F 29.92 in WNW 11.5 mph 21.9 mph 75% 0.00 in 153.00 W/m2
12:54 61.3 °F 53.7 °F 29.92 in WNW 10.3 mph 21.9 mph 76% 0.00 in 174.00 W/m2
12:55 61.3 °F 53.3 °F 29.92 in NW 13.8 mph 21.9 mph 75% 0.00 in 186.00 W/m2
12:57 61.3 °F 53.7 °F 29.93 in NW 11.5 mph 11.5 mph 76% 0.00 in 213.00 W/m2
12:59 61.4 °F 54.1 °F 29.93 in NW 8.1 mph 12.6 mph 77% 0.00 in 193.00 W/m2
13:00 61.4 °F 54.1 °F 29.93 in NW 6.9 mph 12.6 mph 77% 0.00 in 183.00 W/m2
13:02 61.6 °F 54.0 °F 29.93 in NNW 10.3 mph 14.9 mph 76% 0.00 in 190.00 W/m2
13:04 61.6 °F 54.0 °F 29.93 in NW 14.9 mph 20.7 mph 76% 0.00 in 183.00 W/m2
13:06 61.6 °F 54.0 °F 29.93 in NW 9.2 mph 20.7 mph 76% 0.00 in 172.00 W/m2
13:08 61.5 °F 53.9 °F 29.93 in NNW 13.8 mph 13.8 mph 76% 0.00 in 192.00 W/m2
13:10 61.6 °F 54.0 °F 29.93 in WNW 9.2 mph 16.1 mph 76% 0.00 in 181.00 W/m2
13:12 61.6 °F 54.0 °F 29.93 in NNW 9.2 mph 18.4 mph 76% 0.00 in 255.00 W/m2
13:13 61.6 °F 54.0 °F 29.93 in NW 14.9 mph 18.4 mph 76% 0.00 in 279.00 W/m2
13:15 61.8 °F 54.2 °F 29.93 in NW 4.6 mph 18.4 mph 76% 0.00 in 378.00 W/m2
13:17 62.2 °F 54.9 °F 29.93 in NW 14.9 mph 14.9 mph 77% 0.00 in 316.00 W/m2
13:19 62.5 °F 54.8 °F 29.93 in NW 11.5 mph 17.2 mph 76% 0.00 in 410.00 W/m2
13:20 62.7 °F 55.4 °F 29.93 in NW 17.2 mph 19.5 mph 77% 0.00 in 346.00 W/m2
13:22 63.1 °F 54.7 °F 29.93 in NNW 16.1 mph 19.5 mph 74% 0.00 in 385.00 W/m2
13:24 63.5 °F 54.7 °F 29.92 in NW 9.2 mph 21.9 mph 73% 0.00 in 385.00 W/m2
13:25 63.7 °F 55.3 °F 29.92 in NNW 13.8 mph 21.9 mph 74% 0.00 in 385.00 W/m2
13:28 64.2 °F 55.4 °F 29.92 in NW 5.8 mph 16.1 mph 73% 0.00 in 385.00 W/m2
13:30 64.4 °F 55.2 °F 29.92 in NNW 16.1 mph 19.5 mph 72% 0.00 in 385.00 W/m2
13:31 64.4 °F 55.2 °F 29.92 in NW 6.9 mph 19.5 mph 72% 0.00 in 385.00 W/m2
13:34 64.5 °F 55.7 °F 29.93 in NW 14.9 mph 16.1 mph 73% 0.00 in 896.00 W/m2
13:36 64.5 °F 54.9 °F 29.93 in WNW 12.6 mph 21.9 mph 71% 0.00 in 896.00 W/m2
13:37 64.6 °F 55.8 °F 29.93 in WNW 10.3 mph 16.1 mph 73% 0.00 in 896.00 W/m2
13:39 64.7 °F 55.5 °F 29.93 in NW 10.3 mph 19.5 mph 72% 0.00 in 135.00 W/m2
13:41 64.7 °F 55.1 °F 29.93 in NW 6.9 mph 19.5 mph 71% 0.00 in 206.00 W/m2
13:42 64.8 °F 55.2 °F 29.93 in NW 10.3 mph 16.1 mph 71% 0.00 in 206.00 W/m2
13:44 65.2 °F 56.0 °F 29.93 in WNW 8.1 mph 16.1 mph 72% 0.00 in 218.00 W/m2
13:46 65.1 °F 55.5 °F 29.93 in NW 6.9 mph 6.9 mph 71% 0.00 in 181.00 W/m2
13:47 65.1 °F 55.9 °F 29.93 in NNW 8.1 mph 8.1 mph 72% 0.00 in 200.00 W/m2
13:48 65.1 °F 55.9 °F 29.93 in NNW 10.3 mph 10.3 mph 72% 0.00 in 200.00 W/m2
13:49 65.1 °F 55.5 °F 29.93 in NW 9.2 mph 12.6 mph 71% 0.00 in 200.00 W/m2
13:51 65.1 °F 55.5 °F 29.93 in NW 6.9 mph 10.3 mph 71% 0.00 in 118.00 W/m2
13:52 65.2 °F 55.6 °F 29.93 in NW 16.1 mph 17.2 mph 71% 0.00 in 118.00 W/m2
13:53 65.2 °F 55.2 °F 29.93 in WNW 16.1 mph 18.4 mph 70% 0.00 in 902.00 W/m2
13:56 65.7 °F 55.7 °F 29.92 in NW 10.3 mph 10.3 mph 70% 0.00 in 425.00 W/m2
13:57 65.6 °F 55.2 °F 29.93 in WNW 10.3 mph 13.8 mph 69% 0.00 in 330.00 W/m2
13:58 65.6 °F 55.2 °F 29.93 in WNW 12.6 mph 13.8 mph 69% 0.00 in 330.00 W/m2
13:59 65.6 °F 55.6 °F 29.93 in WNW 9.2 mph 18.4 mph 70% 0.00 in 383.00 W/m2
14:02 65.9 °F 56.2 °F 29.93 in WNW 12.6 mph 16.1 mph 71% 0.00 in 334.00 W/m2
14:03 66.0 °F 56.0 °F 29.93 in WNW 10.3 mph 16.1 mph 70% 0.00 in 278.00 W/m2
14:04 65.9 °F 55.5 °F 29.93 in NW 13.8 mph 16.1 mph 69% 0.00 in 264.00 W/m2
14:08 65.7 °F 55.7 °F 29.93 in West 11.5 mph 18.4 mph 70% 0.00 in 429.00 W/m2
14:10 65.9 °F 56.2 °F 29.93 in North 17.2 mph 18.4 mph 71% 0.00 in 353.00 W/m2
14:13 65.8 °F 55.8 °F 29.93 in North 11.5 mph 14.9 mph 70% 0.00 in 294.00 W/m2
14:15 65.9 °F 56.6 °F 29.93 in NW 18.4 mph 19.5 mph 72% 0.00 in 288.00 W/m2
14:18 66.4 °F 55.9 °F 29.93 in NW 12.6 mph 20.7 mph 69% 0.00 in 846.00 W/m2
14:19 66.5 °F 55.6 °F 29.93 in NW 8.1 mph 20.7 mph 68% 0.00 in 846.00 W/m2
14:20 66.5 °F 55.2 °F 29.93 in WNW 18.4 mph 23.0 mph 67% 0.00 in 846.00 W/m2
14:21 66.3 °F 55.0 °F 29.93 in NW 13.8 mph 13.8 mph 67% 0.00 in 828.00 W/m2
14:25 66.3 °F 55.8 °F 29.93 in NNW 17.2 mph 24.1 mph 69% 0.00 in 935.00 W/m2
14:26 66.4 °F 55.9 °F 29.93 in WNW 13.8 mph 24.1 mph 69% 0.00 in 977.00 W/m2
14:30 66.3 °F 55.4 °F 29.93 in WNW 13.8 mph 19.5 mph 68% 0.00 in 197.00 W/m2
14:31 66.1 °F 55.7 °F 29.93 in WNW 10.3 mph 19.5 mph 69% 0.00 in 155.00 W/m2
14:32 65.9 °F 55.0 °F 29.93 in NNW 12.6 mph 17.2 mph 68% 0.00 in 155.00 W/m2
14:36 64.8 °F 54.8 °F 29.94 in NW 12.6 mph 21.9 mph 70% 0.00 in 190.00 W/m2
14:37 64.7 °F 54.7 °F 29.94 in WNW 12.6 mph 16.1 mph 70% 0.00 in 190.00 W/m2
14:41 65.2 °F 56.0 °F 29.94 in NNW 10.3 mph 18.4 mph 72% 0.00 in 721.00 W/m2
14:42 65.4 °F 56.2 °F 29.94 in NW 11.5 mph 17.2 mph 72% 0.00 in 714.00 W/m2
14:44 65.6 °F 55.6 °F 29.94 in WNW 9.2 mph 18.4 mph 70% 0.00 in 707.00 W/m2
14:46 65.5 °F 55.5 °F 29.94 in WNW 13.8 mph 18.4 mph 70% 0.00 in 745.00 W/m2
14:47 65.7 °F 56.0 °F 29.94 in NNW 12.6 mph 20.7 mph 71% 0.00 in 865.00 W/m2
14:49 66.2 °F 56.1 °F 29.94 in WNW 12.6 mph 20.7 mph 70% 0.00 in 933.00 W/m2
14:51 66.4 °F 55.1 °F 29.94 in NW 6.9 mph 20.7 mph 67% 0.00 in 283.00 W/m2
14:52 66.3 °F 56.2 °F 29.94 in NW 10.3 mph 11.5 mph 70% 0.00 in 255.00 W/m2
14:53 66.3 °F 56.2 °F 29.94 in NW 13.8 mph 17.2 mph 70% 0.00 in 255.00 W/m2
14:54 66.1 °F 55.7 °F 29.94 in North 17.2 mph 17.2 mph 69% 0.00 in 243.00 W/m2
14:57 65.6 °F 54.8 °F 29.94 in WNW 6.9 mph 11.5 mph 68% 0.00 in 255.00 W/m2
14:58 65.5 °F 54.7 °F 29.94 in NW 14.9 mph 17.2 mph 68% 0.00 in 264.00 W/m2
14:59 65.3 °F 54.5 °F 29.94 in NNW 13.8 mph 17.2 mph 68% 0.00 in 272.00 W/m2
15:02 65.2 °F 55.2 °F 29.94 in WNW 9.2 mph 13.8 mph 70% 0.00 in 269.00 W/m2
15:03 65.2 °F 55.2 °F 29.94 in NW 8.1 mph 13.8 mph 70% 0.00 in 272.00 W/m2
15:04 65.2 °F 55.2 °F 29.94 in NW 5.8 mph 13.8 mph 70% 0.00 in 267.00 W/m2
15:05 65.2 °F 55.2 °F 29.94 in NW 14.9 mph 17.2 mph 70% 0.00 in 255.00 W/m2
15:07 65.1 °F 54.7 °F 29.94 in NW 8.1 mph 14.9 mph 69% 0.00 in 262.00 W/m2
15:09 65.1 °F 54.7 °F 29.94 in WNW 5.8 mph 14.9 mph 69% 0.00 in 281.00 W/m2
15:11 65.1 °F 55.1 °F 29.94 in WNW 9.2 mph 14.9 mph 70% 0.00 in 306.00 W/m2
15:12 65.2 °F 55.2 °F 29.94 in NW 11.5 mph 11.5 mph 70% 0.00 in 306.00 W/m2
15:13 65.4 °F 55.8 °F 29.94 in NW 8.1 mph 13.8 mph 71% 0.00 in 306.00 W/m2
15:15 65.8 °F 56.2 °F 29.94 in WNW 9.2 mph 16.1 mph 71% 0.00 in 559.00 W/m2
15:16 65.9 °F 55.5 °F 29.94 in WNW 11.5 mph 16.1 mph 69% 0.00 in 571.00 W/m2
15:17 66.1 °F 55.7 °F 29.94 in NNW 3.4 mph 14.9 mph 69% 0.00 in 571.00 W/m2
15:19 66.1 °F 55.7 °F 29.94 in NNW 8.1 mph 14.9 mph 69% 0.00 in 571.00 W/m2
15:21 66.0 °F 55.5 °F 29.94 in NNW 11.5 mph 19.5 mph 69% 0.00 in 457.00 W/m2
15:22 66.0 °F 55.5 °F 29.94 in NW 17.2 mph 19.5 mph 69% 0.00 in 455.00 W/m2
15:24 66.1 °F 55.7 °F 29.94 in NW 14.9 mph 19.5 mph 69% 0.00 in 455.00 W/m2
15:26 66.4 °F 56.3 °F 29.94 in North 9.2 mph 19.5 mph 70% 0.00 in 371.00 W/m2
15:27 66.3 °F 55.8 °F 29.95 in NNW 4.6 mph 13.8 mph 69% 0.00 in 332.00 W/m2
15:29 66.3 °F 55.4 °F 29.94 in NW 11.5 mph 20.7 mph 68% 0.00 in 332.00 W/m2
15:31 66.1 °F 55.2 °F 29.94 in NW 8.1 mph 10.3 mph 68% 0.00 in 165.00 W/m2
15:32 66.0 °F 55.2 °F 29.94 in NNW 14.9 mph 14.9 mph 68% 0.00 in 79.00 W/m2
15:34 66.0 °F 55.2 °F 29.95 in WNW 14.9 mph 17.2 mph 68% 0.00 in 135.00 W/m2
15:37 65.7 °F 54.9 °F 29.95 in WNW 8.1 mph 12.6 mph 68% 0.00 in 125.00 W/m2
15:38 65.6 °F 55.2 °F 29.95 in NW 6.9 mph 12.6 mph 69% 0.00 in 109.00 W/m2
15:39 65.6 °F 55.2 °F 29.95 in NNW 14.9 mph 14.9 mph 69% 0.00 in 84.00 W/m2
15:43 65.5 °F 54.7 °F 29.95 in NW 5.8 mph 16.1 mph 68% 0.00 in 97.00 W/m2
15:45 65.4 °F 54.2 °F 29.94 in NNW 10.3 mph 17.2 mph 67% 0.00 in 104.00 W/m2
15:48 65.1 °F 54.7 °F 29.94 in NW 5.8 mph 11.5 mph 69% 0.00 in 91.00 W/m2
15:50 65.1 °F 55.5 °F 29.95 in WNW 11.5 mph 11.5 mph 71% 0.00 in 130.00 W/m2
15:53 65.4 °F 54.6 °F 29.94 in NW 10.3 mph 16.1 mph 68% 0.00 in 132.00 W/m2
15:55 65.4 °F 54.6 °F 29.95 in NNW 6.9 mph 16.1 mph 68% 0.00 in 156.00 W/m2
15:58 65.4 °F 54.6 °F 29.95 in WNW 6.9 mph 9.2 mph 68% 0.00 in 135.00 W/m2
15:59 65.4 °F 54.6 °F 29.95 in NW 8.1 mph 9.2 mph 68% 0.00 in 141.00 W/m2
16:01 65.7 °F 55.3 °F 29.95 in NNW 8.1 mph 11.5 mph 69% 0.00 in 178.00 W/m2
16:03 65.7 °F 54.9 °F 29.95 in NW 6.9 mph 14.9 mph 68% 0.00 in 213.00 W/m2
16:04 65.6 °F 54.4 °F 29.94 in NNW 8.1 mph 14.9 mph 67% 0.00 in 232.00 W/m2
16:06 65.7 °F 54.9 °F 29.95 in WNW 10.3 mph 14.9 mph 68% 0.00 in 244.00 W/m2
16:08 66.1 °F 54.8 °F 29.95 in NW 8.1 mph 16.1 mph 67% 0.00 in 239.00 W/m2
16:10 66.4 °F 56.3 °F 29.95 in WNW 8.1 mph 16.1 mph 70% 0.00 in 236.00 W/m2
16:11 66.6 °F 55.3 °F 29.95 in NW 4.6 mph 16.1 mph 67% 0.00 in 207.00 W/m2
16:12 66.7 °F 55.4 °F 29.95 in WNW 9.2 mph 17.2 mph 67% 0.00 in 216.00 W/m2
16:13 66.9 °F 55.6 °F 29.95 in NW 14.9 mph 18.4 mph 67% 0.00 in 167.00 W/m2
16:16 67.0 °F 55.3 °F 29.95 in NNW 9.2 mph 18.4 mph 66% 0.00 in 149.00 W/m2
16:18 66.8 °F 54.2 °F 29.95 in NW 8.1 mph 12.6 mph 64% 0.00 in 186.00 W/m2
16:19 66.8 °F 54.7 °F 29.95 in WNW 10.3 mph 14.9 mph 65% 0.00 in 297.00 W/m2
16:22 66.6 °F 54.9 °F 29.95 in WNW 12.6 mph 17.2 mph 66% 0.00 in 134.00 W/m2
16:23 66.3 °F 54.2 °F 29.95 in WNW 10.3 mph 17.2 mph 65% 0.00 in 90.00 W/m2
16:25 66.2 °F 54.9 °F 29.95 in NW 10.3 mph 17.2 mph 67% 0.00 in 86.00 W/m2
16:27 66.2 °F 55.3 °F 29.95 in West 9.2 mph 12.6 mph 68% 0.00 in 86.00 W/m2
16:28 66.2 °F 54.9 °F 29.95 in NW 8.1 mph 12.6 mph 67% 0.00 in 72.00 W/m2
16:31 66.5 °F 55.2 °F 29.95 in NW 9.2 mph 10.3 mph 67% 0.00 in 83.00 W/m2
16:32 66.5 °F 54.8 °F 29.95 in NW 10.3 mph 12.6 mph 66% 0.00 in 100.00 W/m2
16:33 66.5 °F 54.8 °F 29.95 in WNW 8.1 mph 12.6 mph 66% 0.00 in 100.00 W/m2
16:34 66.4 °F 54.7 °F 29.95 in NW 13.8 mph 13.8 mph 66% 0.00 in 134.00 W/m2
16:37 66.1 °F 54.8 °F 29.96 in NW 11.5 mph 12.6 mph 67% 0.00 in 114.00 W/m2
16:38 66.1 °F 54.8 °F 29.96 in North 13.8 mph 13.8 mph 67% 0.00 in 114.00 W/m2
16:39 66.1 °F 54.8 °F 29.96 in NW 9.2 mph 13.8 mph 67% 0.00 in 116.00 W/m2
16:43 65.8 °F 54.5 °F 29.95 in NW 8.1 mph 12.6 mph 67% 0.00 in 185.00 W/m2
16:44 65.8 °F 54.5 °F 29.95 in NW 11.5 mph 12.6 mph 67% 0.00 in 185.00 W/m2
16:48 65.8 °F 54.5 °F 29.96 in WNW 8.1 mph 18.4 mph 67% 0.00 in 142.00 W/m2
16:49 65.8 °F 54.5 °F 29.96 in West 10.3 mph 18.4 mph 67% 0.00 in 128.00 W/m2
16:50 65.8 °F 54.5 °F 29.96 in West 10.3 mph 18.4 mph 67% 0.00 in 104.00 W/m2
16:51 65.8 °F 54.5 °F 29.96 in WNW 6.9 mph 18.4 mph 67% 0.00 in 104.00 W/m2
16:54 65.6 °F 54.4 °F 29.96 in NW 13.8 mph 17.2 mph 67% 0.00 in 72.00 W/m2
16:55 65.5 °F 54.3 °F 29.96 in NNW 14.9 mph 17.2 mph 67% 0.00 in 72.00 W/m2
16:56 65.4 °F 54.2 °F 29.96 in North 8.1 mph 17.2 mph 67% 0.00 in 76.00 W/m2
16:59 65.2 °F 54.0 °F 29.96 in NW 10.3 mph 18.4 mph 67% 0.00 in 118.00 W/m2
17:00 65.2 °F 54.0 °F 29.96 in WNW 6.9 mph 18.4 mph 67% 0.00 in 137.00 W/m2
17:01 65.2 °F 54.4 °F 29.96 in WNW 10.3 mph 10.3 mph 68% 0.00 in 137.00 W/m2
17:04 65.6 °F 54.4 °F 29.97 in NNW 6.9 mph 14.9 mph 67% 0.00 in 102.00 W/m2
17:06 65.9 °F 54.2 °F 29.96 in WNW 13.8 mph 13.8 mph 66% 0.00 in 90.00 W/m2
17:07 65.9 °F 54.7 °F 29.96 in NNW 13.8 mph 16.1 mph 67% 0.00 in 86.00 W/m2
17:10 66.1 °F 54.4 °F 29.97 in NW 11.5 mph 16.1 mph 66% 0.00 in 98.00 W/m2
17:12 66.1 °F 54.8 °F 29.97 in NNW 11.5 mph 14.9 mph 67% 0.00 in 111.00 W/m2
17:15 66.3 °F 54.6 °F 29.97 in NW 6.9 mph 14.9 mph 66% 0.00 in 100.00 W/m2
17:17 66.4 °F 54.3 °F 29.97 in NW 16.1 mph 17.2 mph 65% 0.00 in 100.00 W/m2
17:18 66.5 °F 54.4 °F 29.97 in WNW 18.4 mph 18.4 mph 65% 0.00 in 100.00 W/m2
17:19 66.4 °F 53.9 °F 29.97 in NW 12.6 mph 18.4 mph 64% 0.00 in 109.00 W/m2
17:20 66.3 °F 54.2 °F 29.97 in WNW 10.3 mph 18.4 mph 65% 0.00 in 118.00 W/m2
17:22 66.0 °F 53.9 °F 29.97 in NW 14.9 mph 16.1 mph 65% 0.00 in 113.00 W/m2
17:23 65.9 °F 53.8 °F 29.97 in NW 11.5 mph 16.1 mph 65% 0.00 in 104.00 W/m2
17:25 65.7 °F 54.5 °F 29.97 in NW 8.1 mph 16.1 mph 67% 0.00 in 84.00 W/m2
17:26 65.7 °F 54.5 °F 29.97 in NW 10.3 mph 16.1 mph 67% 0.00 in 84.00 W/m2
17:27 65.4 °F 54.2 °F 29.97 in NW 10.3 mph 17.2 mph 67% 0.00 in 74.00 W/m2
17:28 65.4 °F 54.2 °F 29.97 in NW 9.2 mph 17.2 mph 67% 0.00 in 69.00 W/m2
17:31 65.1 °F 54.3 °F 29.98 in NNW 8.1 mph 17.2 mph 68% 0.00 in 65.00 W/m2
17:33 64.9 °F 54.1 °F 29.98 in NNW 6.9 mph 13.8 mph 68% 0.00 in 67.00 W/m2
17:36 64.7 °F 54.7 °F 29.98 in NNW 8.1 mph 8.1 mph 70% 0.00 in 84.00 W/m2
17:37 64.6 °F 54.6 °F 29.98 in NNW 6.9 mph 10.3 mph 70% 0.00 in 84.00 W/m2
17:38 64.6 °F 54.6 °F 29.98 in NNW 6.9 mph 10.3 mph 70% 0.00 in 84.00 W/m2
17:39 64.6 °F 55.0 °F 29.98 in NW 6.9 mph 10.3 mph 71% 0.00 in 93.00 W/m2
17:41 64.6 °F 54.6 °F 29.99 in North 4.6 mph 8.1 mph 70% 0.00 in 118.00 W/m2
17:43 64.6 °F 55.0 °F 29.99 in Calm   8.1 mph 71% 0.00 in 111.00 W/m2
17:44 64.6 °F 55.4 °F 29.99 in North 3.4 mph 8.1 mph 72% 0.00 in 90.00 W/m2
17:46 64.3 °F 55.5 °F 30.00 in ENE 3.4 mph 5.8 mph 73% 0.00 in 44.00 W/m2
17:48 64.0 °F 55.2 °F 29.99 in NE 4.6 mph 8.1 mph 73% 0.00 in 26.00 W/m2
17:49 63.8 °F 55.4 °F 29.99 in East 3.4 mph 9.2 mph 74% 0.00 in 23.00 W/m2
17:51 63.2 °F 55.2 °F 30.00 in NE 6.9 mph 6.9 mph 75% 0.00 in 26.00 W/m2
17:52 63.2 °F 55.2 °F 30.00 in NE 4.6 mph 6.9 mph 75% 0.00 in 26.00 W/m2
17:54 62.8 °F 55.5 °F 30.00 in East 3.4 mph 8.1 mph 77% 0.00 in 26.00 W/m2
17:57 62.2 °F 54.9 °F 30.00 in NNE 6.9 mph 6.9 mph 77% 0.00 in 23.00 W/m2
17:59 61.9 °F 55.0 °F 30.00 in NE 4.6 mph 6.9 mph 78% 0.00 in 23.00 W/m2
18:00 61.8 °F 54.9 °F 30.00 in NE 4.6 mph 6.9 mph 78% 0.00 in 23.00 W/m2
18:02 61.6 °F 54.7 °F 30.00 in NE 2.3 mph 5.8 mph 78% 0.00 in 25.00 W/m2
18:03 61.4 °F 54.5 °F 30.00 in NE 8.1 mph 9.2 mph 78% 0.00 in 28.00 W/m2
18:05 61.3 °F 54.7 °F 30.00 in NE 4.6 mph 9.2 mph 79% 0.00 in 30.00 W/m2
18:07 61.1 °F 54.5 °F 30.00 in NE 3.4 mph 10.3 mph 79% 0.00 in 30.00 W/m2
18:08 61.0 °F 54.8 °F 30.00 in NE 4.6 mph 10.3 mph 80% 0.00 in 26.00 W/m2
18:10 60.9 °F 54.7 °F 30.01 in NE 4.6 mph 10.3 mph 80% 0.00 in 25.00 W/m2
18:12 60.8 °F 54.6 °F 30.00 in ENE 3.4 mph 4.6 mph 80% 0.00 in 25.00 W/m2
18:13 60.7 °F 54.5 °F 30.01 in ENE 3.4 mph 5.8 mph 80% 0.00 in 25.00 W/m2
18:14 60.7 °F 54.8 °F 30.01 in ENE 3.4 mph 5.8 mph 81% 0.00 in 25.00 W/m2
18:15 60.6 °F 54.4 °F 30.01 in ENE 4.6 mph 9.2 mph 80% 0.00 in 23.00 W/m2
18:18 60.5 °F 54.3 °F 30.01 in ENE 3.4 mph 8.1 mph 80% 0.00 in 19.00 W/m2
18:19 60.5 °F 54.3 °F 30.01 in NE 8.1 mph 12.6 mph 80% 0.00 in 16.00 W/m2
18:20 60.4 °F 54.2 °F 30.01 in NE 3.4 mph 12.6 mph 80% 0.00 in 12.00 W/m2
18:23 60.2 °F 54.4 °F 30.01 in Calm   4.6 mph 81% 0.00 in 9.00 W/m2
18:24 60.2 °F 54.4 °F 30.01 in NE 6.9 mph 6.9 mph 81% 0.00 in 9.00 W/m2
18:26 60.0 °F 54.2 °F 30.01 in NE 2.3 mph 6.9 mph 81% 0.00 in 9.00 W/m2
18:28 59.9 °F 54.4 °F 30.02 in ENE 8.1 mph 8.1 mph 82% 0.00 in 11.00 W/m2
18:30 59.8 °F 54.0 °F 30.02 in ENE 3.4 mph 8.1 mph 81% 0.00 in 11.00 W/m2
18:31 59.8 °F 54.3 °F 30.02 in ENE 3.4 mph 8.1 mph 82% 0.00 in 11.00 W/m2
18:33 59.6 °F 54.1 °F 30.02 in NE 3.4 mph 8.1 mph 82% 0.00 in 9.00 W/m2
18:36 59.6 °F 54.1 °F 30.02 in ENE 4.6 mph 9.2 mph 82% 0.00 in 7.00 W/m2
18:38 59.6 °F 54.1 °F 30.02 in NE 2.3 mph 5.8 mph 82% 0.00 in 5.00 W/m2
18:41 59.5 °F 54.3 °F 30.02 in NE 3.4 mph 5.8 mph 83% 0.00 in 0.00 W/m2
18:43 59.5 °F 54.3 °F 30.02 in NE 3.4 mph 5.8 mph 83% 0.00 in 0.00 W/m2
18:45 59.4 °F 54.2 °F 30.03 in NE 4.6 mph 5.8 mph 83% 0.00 in 0.00 W/m2
18:46 59.4 °F 54.2 °F 30.02 in Calm   2.3 mph 83% 0.00 in 0.00 W/m2
18:50 59.3 °F 54.2 °F 30.03 in NE 4.6 mph 6.9 mph 83% 0.00 in 0.00 W/m2
18:51 59.3 °F 54.2 °F 30.03 in NE 2.3 mph 6.9 mph 83% 0.00 in 0.00 W/m2
18:52 59.3 °F 54.2 °F 30.03 in NE 6.9 mph 6.9 mph 83% 0.00 in 0.00 W/m2
18:55 59.2 °F 54.0 °F 30.03 in NE 5.8 mph 6.9 mph 83% 0.00 in 0.00 W/m2
18:56 59.2 °F 54.0 °F 30.03 in NE 4.6 mph 6.9 mph 83% 0.00 in 0.00 W/m2
18:57 59.2 °F 54.0 °F 30.03 in NE 4.6 mph 5.8 mph 83% 0.00 in 0.00 W/m2
19:01 59.1 °F 54.3 °F 30.03 in ENE 3.4 mph 10.3 mph 84% 0.00 in 0.00 W/m2
19:02 59.1 °F 54.0 °F 30.03 in NE 4.6 mph 9.2 mph 83% 0.00 in 0.00 W/m2
19:03 59.0 °F 53.8 °F 30.03 in NE 4.6 mph 9.2 mph 83% 0.00 in 0.00 W/m2
19:06 58.9 °F 53.8 °F 30.04 in ENE 3.4 mph 9.2 mph 83% 0.00 in 0.00 W/m2
19:07 58.8 °F 53.7 °F 30.04 in Calm   5.8 mph 83% 0.00 in 0.00 W/m2
19:08 58.7 °F 53.6 °F 30.04 in NE 5.8 mph 9.2 mph 83% 0.00 in 0.00 W/m2
19:12 58.5 °F 53.4 °F 30.04 in NE 4.6 mph 4.6 mph 83% 0.00 in 0.00 W/m2
19:13 58.4 °F 53.3 °F 30.04 in NE 4.6 mph 4.6 mph 83% 0.00 in 0.00 W/m2
19:14 58.4 °F 53.3 °F 30.04 in NE 3.4 mph 6.9 mph 83% 0.00 in 0.00 W/m2
19:17 58.1 °F 53.0 °F 30.04 in NE 1.1 mph 2.3 mph 83% 0.00 in 0.00 W/m2
19:19 58.0 °F 53.2 °F 30.04 in NE 2.3 mph 5.8 mph 84% 0.00 in 0.00 W/m2
19:22 57.7 °F 52.9 °F 30.04 in NE 1.1 mph 2.3 mph 84% 0.00 in 0.00 W/m2
19:24 57.4 °F 52.6 °F 30.05 in Calm   2.3 mph 84% 0.00 in 0.00 W/m2
19:25 57.3 °F 52.8 °F 30.05 in NE 2.3 mph 2.3 mph 85% 0.00 in 0.00 W/m2
19:28 57.1 °F 52.6 °F 30.05 in Calm   3.4 mph 85% 0.00 in 0.00 W/m2
19:29 56.9 °F 52.8 °F 30.05 in NE 2.3 mph 3.4 mph 86% 0.00 in 0.00 W/m2
19:30 56.8 °F 52.7 °F 30.06 in NE 1.1 mph 3.4 mph 86% 0.00 in 0.00 W/m2
19:33 56.6 °F 52.5 °F 30.05 in NE 1.1 mph 4.6 mph 86% 0.00 in 0.00 W/m2
19:34 56.6 °F 52.8 °F 30.06 in NE 2.3 mph 4.6 mph 87% 0.00 in 0.00 W/m2
19:36 56.5 °F 52.7 °F 30.06 in NE 1.1 mph 1.1 mph 87% 0.00 in 0.00 W/m2
19:39 56.3 °F 52.5 °F 30.06 in NE 1.1 mph 3.4 mph 87% 0.00 in 0.00 W/m2
19:40 56.3 °F 52.5 °F 30.06 in Calm   3.4 mph 87% 0.00 in 0.00 W/m2
19:42 56.3 °F 52.5 °F 30.06 in NE 2.3 mph 3.4 mph 87% 0.00 in 0.00 W/m2
19:44 56.2 °F 52.4 °F 30.06 in NE 1.1 mph 4.6 mph 87% 0.00 in 0.00 W/m2
19:45 56.2 °F 52.7 °F 30.06 in NE 5.8 mph 5.8 mph 88% 0.00 in 0.00 W/m2
19:47 56.1 °F 52.6 °F 30.06 in NE 3.4 mph 4.6 mph 88% 0.00 in 0.00 W/m2
19:49 56.1 °F 52.6 °F 30.07 in NE 1.1 mph 5.8 mph 88% 0.00 in 0.00 W/m2
19:50 56.1 °F 52.6 °F 30.07 in Calm   5.8 mph 88% 0.00 in 0.00 W/m2
19:52 56.2 °F 52.7 °F 30.07 in North 2.3 mph 6.9 mph 88% 0.00 in 0.00 W/m2
19:55 56.2 °F 52.7 °F 30.07 in North 2.3 mph 6.9 mph 88% 0.00 in 0.00 W/m2
19:58 56.2 °F 52.7 °F 30.07 in NNE 3.4 mph 6.9 mph 88% 0.00 in 0.00 W/m2
20:00 56.3 °F 52.8 °F 30.07 in NNE 4.6 mph 9.2 mph 88% 0.00 in 0.00 W/m2
20:01 56.3 °F 52.8 °F 30.07 in NNE 2.3 mph 9.2 mph 88% 0.00 in 0.00 W/m2
20:02 56.4 °F 52.9 °F 30.07 in North 4.6 mph 8.1 mph 88% 0.00 in 0.00 W/m2
20:04 56.4 °F 52.9 °F 30.07 in Calm   8.1 mph 88% 0.00 in 0.00 W/m2
20:06 56.4 °F 52.9 °F 30.07 in Calm   8.1 mph 88% 0.00 in 0.00 W/m2
20:07 56.4 °F 52.6 °F 30.07 in NNE 1.1 mph 6.9 mph 87% 0.00 in 0.00 W/m2
20:09 56.5 °F 52.7 °F 30.07 in NNE 5.8 mph 6.9 mph 87% 0.00 in 0.00 W/m2
20:11 56.5 °F 52.7 °F 30.07 in NNE 5.8 mph 6.9 mph 87% 0.00 in 0.00 W/m2
20:12 56.5 °F 52.7 °F 30.08 in Calm   5.8 mph 87% 0.00 in 0.00 W/m2
20:15 56.5 °F 52.7 °F 30.08 in NNE 5.8 mph 6.9 mph 87% 0.00 in 0.00 W/m2
20:16 56.5 °F 52.7 °F 30.08 in NNE 5.8 mph 6.9 mph 87% 0.00 in 0.00 W/m2
20:18 56.4 °F 52.6 °F 30.08 in NE 5.8 mph 8.1 mph 87% 0.00 in 0.00 W/m2
20:19 56.3 °F 52.5 °F 30.08 in NE 2.3 mph 8.1 mph 87% 0.00 in 0.00 W/m2
20:20 56.3 °F 52.5 °F 30.08 in NNE 4.6 mph 8.1 mph 87% 0.00 in 0.00 W/m2
20:21 56.2 °F 52.4 °F 30.08 in North 6.9 mph 8.1 mph 87% 0.00 in 0.00 W/m2
20:23 56.2 °F 52.4 °F 30.08 in NNE 1.1 mph 8.1 mph 87% 0.00 in 0.00 W/m2
20:25 56.2 °F 52.4 °F 30.08 in North 2.3 mph 8.1 mph 87% 0.00 in 0.00 W/m2
20:26 56.1 °F 52.3 °F 30.08 in NNE 2.3 mph 5.8 mph 87% 0.00 in 0.00 W/m2
20:29 56.0 °F 52.2 °F 30.08 in NNE 5.8 mph 8.1 mph 87% 0.00 in 0.00 W/m2
20:30 56.0 °F 52.2 °F 30.08 in NNE 1.1 mph 8.1 mph 87% 0.00 in 0.00 W/m2
20:31 55.9 °F 52.4 °F 30.08 in North 3.4 mph 5.8 mph 88% 0.00 in 0.00 W/m2
20:34 55.8 °F 52.3 °F 30.08 in North 1.1 mph 6.9 mph 88% 0.00 in 0.00 W/m2
20:36 55.8 °F 52.3 °F 30.08 in Calm   6.9 mph 88% 0.00 in 0.00 W/m2
20:37 55.8 °F 52.3 °F 30.08 in NNE 6.9 mph 6.9 mph 88% 0.00 in 0.00 W/m2
20:38 55.7 °F 52.2 °F 30.09 in NNE 1.1 mph 8.1 mph 88% 0.00 in 0.00 W/m2
20:40 55.7 °F 52.2 °F 30.08 in NNE 3.4 mph 8.1 mph 88% 0.00 in 0.00 W/m2
20:41 55.6 °F 52.1 °F 30.09 in NNE 3.4 mph 8.1 mph 88% 0.00 in 0.00 W/m2
20:42 55.5 °F 52.0 °F 30.09 in NNE 3.4 mph 4.6 mph 88% 0.00 in 0.00 W/m2
20:43 55.4 °F 51.9 °F 30.09 in Calm   4.6 mph 88% 0.00 in 0.00 W/m2
20:45 55.3 °F 51.8 °F 30.09 in NNE 1.1 mph 4.6 mph 88% 0.00 in 0.00 W/m2
20:47 55.2 °F 51.7 °F 30.09 in NNE 1.1 mph 2.3 mph 88% 0.00 in 0.00 W/m2
20:49 55.2 °F 51.7 °F 30.09 in Calm   2.3 mph 88% 0.00 in 0.00 W/m2
20:51 55.1 °F 51.6 °F 30.09 in NNE 3.4 mph 3.4 mph 88% 0.00 in 0.00 W/m2
20:52 55.0 °F 51.5 °F 30.09 in NNE 2.3 mph 3.4 mph 88% 0.00 in 0.00 W/m2
20:54 55.0 °F 51.8 °F 30.09 in Calm   3.4 mph 89% 0.00 in 0.00 W/m2
20:56 54.8 °F 51.6 °F 30.09 in Calm   3.4 mph 89% 0.00 in 0.00 W/m2
20:57 54.7 °F 51.5 °F 30.09 in NNE 3.4 mph 5.8 mph 89% 0.00 in 0.00 W/m2
20:58 54.6 °F 51.4 °F 30.09 in NNE 1.1 mph 5.8 mph 89% 0.00 in 0.00 W/m2
21:00 54.5 °F 51.3 °F 30.09 in Calm   5.8 mph 89% 0.00 in 0.00 W/m2
21:01 54.5 °F 51.3 °F 30.09 in Calm     89% 0.00 in 0.00 W/m2
21:03 54.4 °F 51.2 °F 30.09 in Calm   1.1 mph 89% 0.00 in 0.00 W/m2
21:05 54.3 °F 51.4 °F 30.09 in Calm   2.3 mph 90% 0.00 in 0.00 W/m2
21:08 54.2 °F 51.3 °F 30.09 in Calm   2.3 mph 90% 0.00 in 0.00 W/m2
21:09 54.1 °F 51.2 °F 30.09 in Calm   2.3 mph 90% 0.00 in 0.00 W/m2
21:10 54.0 °F 51.1 °F 30.09 in Calm   2.3 mph 90% 0.00 in 0.00 W/m2
21:13 53.7 °F 50.8 °F 30.09 in Calm   3.4 mph 90% 0.00 in 0.00 W/m2
21:14 53.7 °F 50.8 °F 30.09 in Calm   3.4 mph 90% 0.00 in 0.00 W/m2
21:15 53.6 °F 50.7 °F 30.10 in Calm   3.4 mph 90% 0.00 in 0.00 W/m2
21:16 53.5 °F 50.6 °F 30.10 in Calm   3.4 mph 90% 0.00 in 0.00 W/m2
21:19 53.3 °F 50.7 °F 30.09 in Calm     91% 0.00 in 0.00 W/m2
21:20 53.2 °F 50.7 °F 30.09 in Calm     91% 0.00 in 0.00 W/m2
21:21 53.1 °F 50.5 °F 30.09 in Calm     91% 0.00 in 0.00 W/m2
21:22 53.0 °F 50.5 °F 30.10 in Calm     91% 0.00 in 0.00 W/m2
21:25 52.8 °F 50.2 °F 30.10 in Calm   1.1 mph 91% 0.00 in 0.00 W/m2
21:26 52.8 °F 50.2 °F 30.10 in Calm   1.1 mph 91% 0.00 in 0.00 W/m2
21:27 52.7 °F 50.2 °F 30.10 in Calm   1.1 mph 91% 0.00 in 0.00 W/m2
21:30 52.7 °F 50.5 °F 30.10 in Calm   1.1 mph 92% 0.00 in 0.00 W/m2
21:31 52.7 °F 50.5 °F 30.10 in Calm     92% 0.00 in 0.00 W/m2
21:32 52.7 °F 50.5 °F 30.10 in Calm     92% 0.00 in 0.00 W/m2
21:33 52.6 °F 50.3 °F 30.10 in Calm     92% 0.00 in 0.00 W/m2
21:35 52.6 °F 50.0 °F 30.10 in Calm     91% 0.00 in 0.00 W/m2
21:37 52.5 °F 50.0 °F 30.10 in Calm     91% 0.00 in 0.00 W/m2
21:38 52.5 °F 50.0 °F 30.10 in Calm     91% 0.00 in 0.00 W/m2
21:40 52.4 °F 50.2 °F 30.10 in Calm     92% 0.00 in 0.00 W/m2
21:43 52.3 °F 50.0 °F 30.11 in Calm     92% 0.00 in 0.00 W/m2
21:46 52.3 °F 50.0 °F 30.11 in Calm     92% 0.00 in 0.00 W/m2
21:48 52.1 °F 49.8 °F 30.11 in Calm   1.1 mph 92% 0.00 in 0.00 W/m2
21:51 52.0 °F 49.8 °F 30.11 in Calm   1.1 mph 92% 0.00 in 0.00 W/m2
21:52 52.0 °F 49.8 °F 30.11 in Calm   1.1 mph 92% 0.00 in 0.00 W/m2
21:53 51.9 °F 49.7 °F 30.11 in Calm   1.1 mph 92% 0.00 in 0.00 W/m2
21:56 51.8 °F 49.5 °F 30.11 in Calm   1.1 mph 92% 0.00 in 0.00 W/m2
21:57 51.8 °F 49.5 °F 30.11 in Calm     92% 0.00 in 0.00 W/m2
21:58 51.7 °F 49.5 °F 30.11 in Calm     92% 0.00 in 0.00 W/m2
22:01 51.7 °F 49.5 °F 30.11 in Calm     92% 0.00 in 0.00 W/m2
22:03 51.6 °F 49.4 °F 30.11 in Calm   1.1 mph 92% 0.00 in 0.00 W/m2
22:07 51.5 °F 49.3 °F 30.11 in Calm     92% 0.00 in 0.00 W/m2
22:08 51.4 °F 49.2 °F 30.11 in Calm     92% 0.00 in 0.00 W/m2
22:09 51.4 °F 49.2 °F 30.11 in Calm     92% 0.00 in 0.00 W/m2
22:10 51.3 °F 49.1 °F 30.11 in Calm     92% 0.00 in 0.00 W/m2
22:12 51.2 °F 49.0 °F 30.11 in Calm     92% 0.00 in 0.00 W/m2
22:13 51.2 °F 49.0 °F 30.11 in Calm     92% 0.00 in 0.00 W/m2
22:14 51.2 °F 49.0 °F 30.11 in NNE 1.1 mph 1.1 mph 92% 0.00 in 0.00 W/m2
22:16 51.2 °F 49.2 °F 30.11 in Calm   4.6 mph 93% 0.00 in 0.00 W/m2
22:18 51.3 °F 49.3 °F 30.11 in NNE 1.1 mph 2.3 mph 93% 0.00 in 0.00 W/m2
22:20 51.3 °F 49.3 °F 30.11 in Calm   2.3 mph 93% 0.00 in 0.00 W/m2
22:21 51.4 °F 49.5 °F 30.11 in Calm   2.3 mph 93% 0.00 in 0.00 W/m2
22:23 51.5 °F 49.5 °F 30.11 in NNE 2.3 mph 2.3 mph 93% 0.00 in 0.00 W/m2
22:24 51.5 °F 49.3 °F 30.11 in Calm   2.3 mph 92% 0.00 in 0.00 W/m2
22:25 51.4 °F 49.2 °F 30.11 in Calm   2.3 mph 92% 0.00 in 0.00 W/m2
22:27 51.4 °F 49.2 °F 30.11 in Calm     92% 0.00 in 0.00 W/m2
22:28 51.3 °F 49.1 °F 30.11 in Calm     92% 0.00 in 0.00 W/m2
22:29 51.3 °F 49.1 °F 30.11 in Calm   2.3 mph 92% 0.00 in 0.00 W/m2
22:30 51.2 °F 49.0 °F 30.11 in NNE 1.1 mph 2.3 mph 92% 0.00 in 0.00 W/m2
22:33 51.1 °F 48.9 °F 30.11 in Calm   2.3 mph 92% 0.00 in 0.00 W/m2
22:35 51.0 °F 48.8 °F 30.11 in Calm   2.3 mph 92% 0.00 in 0.00 W/m2
22:36 51.0 °F 48.8 °F 30.11 in Calm   4.6 mph 92% 0.00 in 0.00 W/m2
22:38 50.9 °F 48.7 °F 30.11 in Calm     92% 0.00 in 0.00 W/m2
22:40 50.9 °F 48.7 °F 30.11 in Calm     92% 0.00 in 0.00 W/m2
22:41 50.8 °F 48.6 °F 30.11 in Calm     92% 0.00 in 0.00 W/m2
22:43 50.8 °F 48.6 °F 30.12 in Calm     92% 0.00 in 0.00 W/m2
22:44 50.7 °F 48.5 °F 30.12 in Calm   1.1 mph 92% 0.00 in 0.00 W/m2
22:45 50.7 °F 48.5 °F 30.12 in Calm   1.1 mph 92% 0.00 in 0.00 W/m2
22:46 50.7 °F 48.5 °F 30.12 in Calm   2.3 mph 92% 0.00 in 0.00 W/m2
22:49 50.5 °F 48.3 °F 30.12 in Calm   1.1 mph 92% 0.00 in 0.00 W/m2
22:50 50.4 °F 48.2 °F 30.12 in NNE 1.1 mph 1.1 mph 92% 0.00 in 0.00 W/m2
22:51 50.4 °F 48.2 °F 30.12 in NNE 2.3 mph 2.3 mph 92% 0.00 in 0.00 W/m2
22:54 50.2 °F 48.0 °F 30.12 in Calm   2.3 mph 92% 0.00 in 0.00 W/m2
22:56 50.2 °F 48.0 °F 30.12 in Calm   2.3 mph 92% 0.00 in 0.00 W/m2
22:57 50.1 °F 47.9 °F 30.11 in Calm   1.1 mph 92% 0.00 in 0.00 W/m2
22:59 50.0 °F 47.8 °F 30.12 in NNE 1.1 mph 3.4 mph 92% 0.00 in 0.00 W/m2
23:01 49.9 °F 47.7 °F 30.11 in Calm   1.1 mph 92% 0.00 in 0.00 W/m2
23:02 49.9 °F 47.7 °F 30.11 in Calm   1.1 mph 92% 0.00 in 0.00 W/m2
23:04 49.7 °F 47.5 °F 30.11 in Calm   1.1 mph 92% 0.00 in 0.00 W/m2
23:05 49.7 °F 47.5 °F 30.11 in Calm   1.1 mph 92% 0.00 in 0.00 W/m2
23:07 49.7 °F 47.5 °F 30.12 in NNE 1.1 mph 4.6 mph 92% 0.00 in 0.00 W/m2
23:08 49.7 °F 47.5 °F 30.12 in NNE 3.4 mph 4.6 mph 92% 0.00 in 0.00 W/m2
23:10 49.7 °F 47.5 °F 30.12 in Calm   4.6 mph 92% 0.00 in 0.00 W/m2
Peotone Weather Data
Compliments of Weather Underground